GFSSGP_sfc_wetblb_003.txt.gz
Wetbulb
56.87 51.88 53.09 51.81 46.27 44.87 40.13 42.13 43.97 52.12 54.36 57.99 58.66 56.72 56.48 58.28 54.04 51.57 64.78 65.02 67.57 69.32 70.56 70.94 70.83 71.45 71.57 71.89 71.83 71.66 72.12 71.76 71.23 70.77 70.31 70.03 70.15 70.12 69.39 68.37 67.17 66.65 66.65 67.68 68.02 67.92 69.48 70.20 69.64
55.12 50.36 50.30 47.48 42.94 41.03 43.03 45.39 45.87 54.17 58.26 59.23 59.39 59.03 58.16 56.46 63.06 62.61 63.31 65.28 67.46 68.64 69.88 70.48 70.58 71.19 71.97 72.07 72.01 72.39 72.30 71.81 71.09 70.46 69.79 69.53 69.51 69.65 69.73 68.18 65.94 65.95 66.16 67.10 67.90 68.87 68.42 68.27 67.92
53.04 48.20 48.31 44.32 40.98 40.02 44.66 47.92 54.69 57.22 57.29 57.81 58.56 60.61 59.93 59.58 63.44 63.09 64.73 65.43 67.13 67.74 69.27 70.22 70.02 70.35 71.05 71.60 72.24 72.50 72.63 72.20 71.35 70.70 70.24 70.22 69.66 69.46 69.36 67.20 65.49 66.23 66.77 67.25 67.93 68.10 68.54 68.52 68.74
50.77 48.52 45.97 45.11 40.80 42.18 47.53 52.67 57.68 55.93 56.14 59.56 59.52 56.59 61.05 64.30 64.76 66.18 63.90 65.61 65.98 66.89 68.92 69.02 68.74 69.85 70.32 70.27 70.49 70.60 70.85 70.80 70.47 69.92 70.11 69.97 69.57 69.27 67.81 67.11 66.93 66.45 67.03 67.35 66.96 66.66 65.91 66.20 67.64
46.89 46.41 43.46 42.87 43.05 45.76 48.16 51.29 55.95 53.30 53.65 56.12 57.24 56.30 58.06 63.78 66.26 64.13 64.86 65.68 64.65 65.59 67.90 68.84 67.93 69.04 69.86 69.46 69.60 69.35 69.39 69.65 69.85 69.65 69.71 69.29 68.80 67.63 66.35 65.68 66.39 66.59 66.77 66.91 66.72 65.99 65.39 64.97 65.09
45.59 45.35 42.68 41.63 42.31 42.26 47.55 50.64 52.43 51.50 53.77 55.38 57.47 56.96 58.26 64.06 63.94 64.31 65.51 64.84 65.08 64.86 67.07 67.84 68.23 68.60 68.79 68.98 68.83 68.55 68.71 68.91 68.75 68.76 68.90 68.60 68.05 67.42 67.03 66.61 65.74 65.37 64.75 64.84 64.94 65.50 66.20 66.18 66.05
44.03 42.28 38.57 38.58 39.95 41.08 43.70 44.66 48.38 50.80 51.71 51.24 57.94 54.79 58.82 62.47 64.90 65.21 65.16 64.75 65.30 65.89 66.45 67.05 67.26 67.08 66.76 66.58 66.74 67.01 67.90 67.88 67.57 67.28 66.79 66.59 66.74 65.96 65.29 64.82 64.44 64.05 64.08 64.15 63.62 63.83 63.79 63.51 63.44
43.41 43.47 38.66 39.03 39.20 39.84 43.13 45.32 45.74 47.86 49.29 54.60 57.43 54.21 57.16 63.16 65.16 65.37 64.95 64.31 65.04 65.87 65.92 66.31 66.19 65.51 65.65 66.48 65.52 66.16 66.63 67.10 66.59 65.89 64.94 64.65 64.59 63.73 63.66 61.93 62.80 63.36 63.41 63.04 62.69 62.19 61.72 61.26 61.48
44.30 41.97 38.93 39.01 40.25 42.07 44.10 44.50 45.95 48.64 52.52 50.30 53.15 58.22 58.66 65.08 65.09 64.77 64.60 63.90 64.13 64.77 65.45 65.50 64.99 64.20 64.01 65.06 65.52 65.71 66.16 66.70 66.18 65.20 64.12 64.37 65.54 64.25 62.74 62.15 62.06 62.19 62.02 61.87 61.07 60.10 59.58 58.10 58.59
43.90 41.51 40.56 42.55 42.79 43.56 44.67 44.41 44.84 46.81 49.18 51.14 54.10 56.57 61.15 63.92 64.35 63.77 63.76 63.02 63.20 63.87 64.90 64.81 64.97 64.47 63.39 63.11 65.18 66.12 65.95 67.74 67.93 67.28 65.95 65.70 64.87 64.44 63.34 62.37 61.58 61.17 60.99 60.49 60.12 59.60 58.25 58.05 59.98
44.60 42.51 43.85 44.27 44.19 45.63 45.72 46.03 46.04 46.33 46.67 50.70 51.87 56.47 61.32 63.00 63.97 63.87 64.41 64.63 64.33 65.16 65.30 64.49 65.06 65.17 64.13 63.18 65.56 65.30 65.49 66.42 66.99 66.92 66.49 65.39 65.07 64.97 64.50 63.83 63.13 63.10 60.81 61.57 60.72 61.43 62.16 61.65 61.60
44.63 44.49 45.83 46.14 45.74 45.76 45.46 46.67 45.73 45.72 47.73 49.49 54.12 59.51 61.73 61.49 62.40 63.80 64.45 65.19 64.80 65.00 66.05 66.31 65.64 65.49 66.09 66.10 65.50 65.27 64.51 65.03 65.59 66.03 65.76 65.68 64.77 64.02 63.37 62.70 62.61 62.69 63.28 62.04 61.96 62.44 60.68 59.90 59.85
45.86 45.84 46.21 47.05 45.59 46.26 46.76 46.25 46.17 46.48 49.02 48.60 52.70 58.66 61.15 61.95 61.94 63.80 65.07 65.39 64.60 64.50 65.74 66.37 66.43 66.22 66.64 65.60 65.59 64.99 64.65 64.73 65.45 65.69 65.83 64.75 64.04 63.52 62.75 62.16 62.23 62.27 62.66 62.08 61.90 60.12 56.36 55.41 55.18
47.45 46.93 46.17 46.93 47.05 47.29 46.14 46.28 46.37 47.46 47.76 47.39 50.93 56.45 60.81 61.98 62.31 61.45 61.04 62.50 62.28 63.41 64.40 65.05 64.23 64.96 64.92 63.21 63.73 63.59 63.80 64.75 64.73 65.13 65.51 65.00 63.92 63.48 62.58 62.45 62.37 62.29 62.11 62.11 60.54 56.30 54.69 54.43 54.69
46.36 44.35 44.64 45.20 45.38 45.72 45.32 44.82 44.85 47.46 47.06 46.53 46.67 52.56 58.33 61.23 62.55 62.01 62.38 61.49 61.85 62.64 62.90 62.31 63.16 63.56 63.36 61.72 60.58 60.71 61.17 60.97 62.04 62.68 63.34 63.11 62.96 62.56 62.41 62.33 62.29 62.35 62.33 61.28 57.44 54.99 54.37 53.63 52.86
43.04 42.98 41.22 44.38 46.28 46.06 46.16 42.73 47.48 46.60 47.20 48.25 47.97 45.99 52.73 58.16 60.34 60.58 59.36 57.88 59.46 59.84 60.25 60.99 61.02 62.01 62.43 61.51 61.37 61.24 61.20 60.56 59.73 59.51 59.77 60.13 60.26 60.84 61.24 61.00 61.01 61.65 61.48 60.24 57.50 55.61 52.89 51.39 52.07
41.34 38.19 39.04 41.79 44.74 45.36 45.99 43.85 47.72 48.39 47.08 47.81 47.39 46.35 48.44 53.57 53.83 53.56 54.10 55.38 57.09 58.47 59.14 60.04 61.16 61.28 61.19 60.23 60.21 60.02 59.64 59.63 59.51 58.90 58.41 58.80 59.23 59.73 59.75 59.32 59.25 59.68 58.88 58.15 56.56 54.59 52.43 50.89 51.37
37.98 37.89 39.18 39.04 43.48 44.90 43.10 43.77 45.85 45.07 43.53 45.26 45.57 45.80 46.71 50.00 50.81 50.87 51.81 53.30 55.07 57.33 57.79 59.49 59.42 59.39 59.37 58.22 56.53 55.70 55.31 55.57 55.31 55.97 56.24 56.57 57.33 58.38 58.60 58.23 57.79 57.72 56.15 55.77 54.37 52.92 52.24 51.05 51.33
40.52 39.06 38.81 40.82 42.95 43.18 41.57 42.27 44.08 44.80 45.50 44.75 45.14 45.98 46.92 48.85 48.84 49.73 50.52 51.85 53.18 54.94 56.39 57.64 56.54 56.80 55.49 53.93 53.46 54.08 53.33 53.22 53.74 53.55 53.43 53.63 54.24 55.27 56.25 56.47 56.85 56.60 55.02 55.37 54.88 52.99 51.13 50.25 50.77
40.82 39.24 38.44 41.21 42.29 42.96 42.46 42.82 43.55 44.78 44.26 44.85 46.61 47.08 47.87 48.55 48.98 49.03 50.52 51.99 53.67 55.26 55.80 53.95 52.17 51.84 51.72 52.23 52.51 52.35 51.81 52.45 51.74 52.23 53.01 53.42 53.19 53.31 53.21 54.18 54.53 55.27 54.51 54.96 55.03 52.98 51.68 50.32 51.04
39.95 38.95 38.64 38.88 41.39 42.40 41.04 41.58 42.59 44.31 45.50 46.29 46.76 47.44 47.80 48.76 49.17 49.25 49.98 51.54 51.83 51.59 51.05 50.64 51.09 51.91 52.14 51.64 52.17 52.52 52.42 52.25 51.75 51.24 51.43 52.18 52.83 52.75 52.67 52.59 52.65 53.63 54.10 52.88 54.47 54.06 52.47 50.44 50.96
38.05 41.06 41.01 39.59 39.57 37.98 40.43 36.07 41.47 41.81 43.18 44.90 45.92 47.37 48.20 48.89 49.37 49.73 49.87 50.38 50.55 50.64 51.81 52.49 52.19 51.84 51.24 51.36 50.21 49.32 48.20 47.53 49.20 49.50 49.90 50.40 51.55 51.60 51.16 50.73 50.74 51.41 52.36 52.63 52.89 53.74 53.36 52.10 49.83
40.95 42.16 40.89 40.32 39.63 39.01 39.77 38.09 40.43 42.04 41.89 42.95 45.08 46.03 47.61 47.70 47.89 48.05 48.48 49.64 50.05 51.01 51.18 51.49 51.20 50.84 50.73 49.52 49.30 49.28 48.78 49.06 49.23 48.87 48.72 49.10 49.66 50.17 48.90 48.37 48.68 48.97 49.39 50.37 50.82 50.98 50.80 50.45 49.61
43.56 41.41 39.96 39.24 38.70 34.75 36.55 36.30 37.39 40.48 40.98 42.93 45.34 46.55 46.22 46.88 47.33 47.98 49.23 49.72 49.66 50.51 50.67 50.72 50.85 50.84 51.32 50.01 48.65 48.42 48.12 48.05 48.20 48.58 47.52 47.89 47.84 47.37 46.23 46.47 46.84 46.37 46.26 46.34 46.50 46.22 46.11 45.97 45.71
42.96 38.21 33.94 33.96 33.35 32.73 36.74 35.59 37.68 42.32 42.86 43.68 44.19 45.03 46.31 47.66 47.87 48.02 47.99 48.46 49.01 49.52 50.05 49.89 49.94 49.73 50.14 49.80 47.31 47.84 48.87 48.76 47.78 47.00 46.86 45.92 45.17 45.56 44.88 45.11 45.80 45.68 45.97 46.04 46.06 45.45 44.94 44.49 43.74
40.20 38.67 33.49 26.58 28.92 31.35 36.01 33.36 38.08 43.45 45.13 44.95 44.65 44.54 45.55 46.21 47.30 47.69 47.53 48.28 48.84 49.01 49.43 49.34 48.81 48.85 49.93 49.89 46.98 47.78 48.58 47.51 46.19 46.15 46.00 44.28 43.71 43.85 44.74 45.34 45.84 46.29 46.36 45.87 46.08 46.11 45.06 43.17 42.12
40.23 37.41 39.24 32.09 25.72 31.04 34.13 37.85 41.71 43.43 43.62 44.51 43.33 44.72 45.29 46.30 47.31 47.54 48.35 48.45 49.01 48.88 48.96 48.60 48.15 48.35 49.21 49.06 46.53 46.96 46.40 45.73 45.12 44.81 43.74 42.92 43.03 44.13 44.34 45.00 44.57 44.69 44.65 44.49 44.24 43.29 42.51 41.67 40.89
42.41 42.27 35.79 35.75 27.74 25.71 32.49 33.39 36.57 39.61 41.59 41.75 42.31 43.88 45.52 47.05 47.93 48.46 49.03 49.06 48.64 48.88 48.45 48.67 48.46 47.62 47.95 48.06 46.24 45.46 45.08 44.57 43.22 41.88 41.43 41.72 43.12 43.65 43.25 42.21 42.13 41.96 42.00 41.85 41.19 41.04 41.49 41.01 41.07
40.22 38.25 37.36 37.26 34.46 29.84 26.84 32.52 41.40 41.57 42.55 42.73 43.77 44.69 45.46 46.84 47.75 48.27 48.46 48.01 48.05 47.91 48.39 48.17 47.94 47.08 47.23 45.34 44.57 44.15 43.56 41.38 40.40 40.69 41.23 41.57 42.60 41.70 41.18 40.87 40.89 40.48 40.00 38.95 39.20 39.39 39.01 38.59 38.71
41.52 38.57 37.22 32.33 29.19 33.09 31.00 31.83 42.37 43.63 44.17 44.20 44.22 44.75 45.95 46.85 47.43 47.81 47.96 47.95 48.00 48.29 47.76 47.61 47.52 46.22 44.50 44.16 43.84 43.00 40.76 39.36 39.64 39.92 40.79 41.98 41.59 40.98 40.64 40.26 39.89 39.44 39.02 40.21 38.76 37.36 37.06 36.30 35.77

GFSSGP_sfc_wetblb_006.txt.gz
Wetbulb
58.32 57.47 59.19 56.91 49.90 51.72 48.37 49.56 56.08 57.00 57.42 61.04 61.24 59.30 59.37 61.28 57.86 55.79 68.22 68.38 67.50 70.18 72.32 72.31 71.33 72.23 72.51 72.32 72.10 71.79 71.55 71.46 71.19 70.90 70.34 69.77 70.21 70.02 69.23 68.19 67.32 67.14 67.05 67.66 68.72 68.74 69.19 69.53 69.08
57.96 54.53 55.62 54.33 48.43 45.63 47.71 52.99 53.58 57.46 60.35 61.80 61.27 60.73 59.16 58.01 64.00 65.10 65.96 67.49 67.96 69.95 71.84 72.30 70.70 71.71 72.45 72.25 72.05 72.20 71.67 71.79 71.10 70.50 70.23 70.16 70.16 70.16 68.97 67.22 66.63 67.12 67.39 67.97 68.49 68.50 69.03 68.82 68.41
56.15 54.36 52.92 51.78 50.51 46.55 47.54 52.88 57.50 59.43 60.61 60.63 59.61 62.57 61.03 59.39 63.71 64.67 67.58 66.49 67.43 68.98 70.36 71.36 70.37 70.87 71.78 72.13 72.31 72.24 72.13 71.36 71.00 70.58 70.48 70.28 69.96 69.24 68.40 67.21 66.60 66.91 67.60 67.82 68.23 67.86 66.84 67.19 68.08
55.16 53.81 54.77 49.01 46.92 50.07 52.27 56.01 58.45 58.40 60.59 61.59 59.46 57.67 63.57 66.94 65.13 67.03 67.55 66.60 66.02 66.99 68.76 69.24 69.45 70.20 70.35 70.18 70.34 70.58 70.55 70.28 69.81 69.58 69.70 69.54 69.31 68.17 66.45 66.55 66.80 66.80 67.31 67.37 67.42 66.90 66.16 65.41 65.66
54.91 53.53 49.99 48.32 48.82 52.07 55.87 58.41 59.36 57.00 58.41 59.68 59.85 57.07 59.95 66.85 69.07 67.86 67.57 66.37 65.24 66.01 67.53 68.03 68.58 69.07 69.39 69.42 69.15 69.07 69.39 69.59 69.58 69.26 69.19 68.92 68.37 67.73 66.82 66.75 66.91 66.95 66.90 66.22 66.19 66.67 66.80 66.52 66.25
51.56 54.53 47.99 46.09 48.50 52.42 55.30 58.26 56.87 55.12 57.56 58.55 58.14 57.73 60.22 67.40 66.86 67.07 67.64 66.28 65.69 66.13 67.68 67.84 67.77 68.23 68.58 68.61 68.32 68.41 68.56 68.53 68.28 68.35 68.75 68.15 67.57 67.18 66.98 66.15 65.64 65.12 64.78 64.61 64.64 64.55 64.83 64.66 64.79
50.91 51.07 47.22 47.26 47.25 48.82 51.16 54.97 54.04 54.34 55.04 54.73 58.88 54.32 61.08 65.30 67.18 67.42 66.57 66.20 66.10 66.28 66.95 67.89 68.17 67.95 67.03 67.24 67.47 67.68 68.22 67.82 67.26 67.07 66.63 66.86 66.49 65.79 65.48 65.03 64.29 64.11 64.06 63.82 63.38 63.20 63.14 62.88 62.73
52.11 50.50 45.91 46.37 44.85 44.74 48.00 49.36 52.84 52.47 52.97 60.28 60.08 53.29 56.69 64.27 67.72 67.87 66.48 65.88 66.08 66.89 66.92 67.81 68.60 68.16 68.73 68.41 65.88 66.54 66.92 67.15 66.23 65.68 64.69 64.75 64.95 63.99 63.17 62.30 63.18 63.03 62.70 62.51 62.15 61.53 61.01 60.91 61.21
50.69 46.08 43.55 43.99 44.73 45.73 48.89 47.98 50.39 54.22 55.22 55.78 57.53 58.24 62.04 66.81 67.81 67.12 65.56 65.12 65.60 66.53 67.70 68.54 68.03 68.24 68.94 68.31 67.32 65.75 65.79 66.54 66.17 65.99 64.08 64.87 68.49 67.39 65.17 62.24 61.76 62.02 61.61 61.17 60.62 59.57 58.27 57.92 59.42
50.10 47.20 44.98 46.76 47.82 47.74 48.51 48.48 49.48 50.49 50.75 51.56 55.03 59.77 64.81 67.03 66.76 65.61 65.08 63.93 65.29 66.25 67.63 68.74 69.02 68.47 68.50 67.03 68.82 68.83 68.17 69.32 69.55 69.11 68.66 68.40 67.78 67.61 65.02 63.81 61.41 60.65 60.07 59.42 59.43 59.55 60.03 60.64 62.14
49.69 46.47 48.01 47.41 49.12 49.72 48.67 48.29 49.69 48.86 47.96 51.03 51.77 57.50 64.03 65.50 65.80 65.29 65.14 64.28 65.64 67.10 67.89 68.38 68.98 69.20 68.24 67.80 68.90 68.22 68.24 68.38 69.03 69.15 69.05 68.71 68.02 67.71 66.98 66.42 65.64 65.21 62.21 63.82 62.84 63.28 62.91 62.69 62.36
47.43 48.80 48.89 48.86 49.24 49.24 48.46 50.24 48.83 49.80 49.72 52.62 54.72 58.88 62.96 63.87 63.30 63.10 63.11 64.06 65.14 66.71 67.79 68.81 68.84 69.15 69.32 67.96 67.82 68.14 67.07 67.31 67.06 67.53 68.92 68.13 66.89 66.58 66.21 65.10 64.04 63.68 63.53 63.57 63.10 62.85 62.88 60.82 59.36
48.96 49.95 50.76 50.23 49.59 50.22 50.11 49.43 49.61 50.17 52.18 52.80 55.73 60.02 61.22 61.82 62.25 63.44 63.75 63.87 64.89 66.26 68.21 69.32 69.64 69.27 68.41 68.27 67.82 67.79 67.37 66.75 67.00 66.85 66.95 67.57 66.13 65.39 64.70 63.86 63.07 62.78 62.95 62.70 62.61 62.16 60.22 57.68 56.61
50.90 50.81 50.40 50.50 50.61 50.40 49.52 49.99 50.30 50.89 52.83 52.27 53.52 57.79 60.76 61.50 61.44 62.53 63.52 64.20 65.42 66.80 67.97 69.95 69.73 69.32 67.17 66.44 67.18 66.84 67.03 65.55 65.81 64.89 64.72 66.17 66.11 64.55 63.09 62.00 61.29 61.26 61.37 61.74 61.87 61.01 59.10 57.40 56.73
50.85 48.59 50.16 49.99 49.92 49.52 49.55 48.39 48.27 51.19 51.56 51.34 51.80 54.67 59.19 61.05 61.46 61.40 62.66 63.89 65.25 66.05 67.11 68.93 69.02 67.19 66.24 64.79 65.12 65.11 64.67 63.75 63.32 63.05 63.85 64.01 64.30 63.03 62.76 61.27 60.99 61.00 61.42 62.03 62.12 61.39 59.59 57.76 56.11
48.33 48.66 45.35 48.93 50.17 50.45 51.02 46.20 50.33 52.89 52.50 51.66 52.90 52.81 56.61 60.46 61.67 62.36 63.40 64.95 66.22 65.85 66.32 67.98 66.22 64.96 64.56 64.45 65.00 64.75 64.64 64.82 63.62 63.37 63.07 63.15 63.04 62.98 62.52 60.93 60.69 61.28 61.42 60.75 60.36 59.86 58.49 57.41 55.94
47.08 43.46 42.94 45.74 49.48 49.64 49.36 46.69 51.41 52.14 50.83 52.54 53.08 53.57 53.30 58.09 61.87 63.70 64.54 64.99 64.19 64.42 65.74 66.65 65.98 62.61 62.23 63.29 63.92 63.93 63.90 62.80 61.54 61.49 60.74 61.06 61.16 61.39 61.55 60.50 60.58 61.45 60.54 59.89 59.54 58.99 58.54 56.98 55.78
42.38 42.57 44.29 43.68 47.38 48.98 47.67 47.76 49.52 50.67 49.86 51.61 53.01 53.17 52.42 55.68 60.10 59.83 59.01 59.59 61.11 63.46 65.67 65.88 63.46 62.34 62.72 64.02 62.63 61.24 60.84 61.50 60.53 59.49 58.69 58.66 58.48 59.07 59.34 59.44 60.04 60.48 59.78 59.21 58.73 58.46 58.28 57.13 56.04
44.96 43.68 43.00 44.92 47.64 47.60 47.13 46.91 48.07 50.47 51.28 51.33 51.73 51.63 52.92 55.50 56.28 56.68 57.11 58.24 60.05 62.98 63.23 62.30 61.59 58.64 59.77 59.47 57.51 57.77 57.30 57.93 58.43 58.16 58.16 58.09 57.71 57.49 57.61 57.33 57.91 58.36 57.77 58.02 58.61 58.00 57.43 56.66 56.85
44.50 43.03 42.89 45.50 46.63 47.34 47.22 46.65 48.27 49.72 50.07 51.41 52.13 52.41 53.27 54.08 54.80 55.78 57.24 58.45 59.29 60.13 59.78 57.87 56.86 57.06 57.13 57.85 57.68 57.52 57.03 57.46 57.36 57.47 57.44 56.95 55.58 55.44 55.13 55.78 55.64 56.03 55.61 56.27 56.68 56.84 55.96 56.38 56.95
44.34 43.14 43.48 43.27 46.42 48.00 46.60 46.15 46.63 48.52 50.47 51.35 52.11 52.83 53.47 53.60 53.61 54.48 55.59 56.45 57.47 56.58 56.97 56.65 56.81 56.71 56.62 56.73 56.96 57.56 58.01 56.89 55.86 55.07 54.60 54.29 54.38 54.06 54.26 54.50 54.54 54.68 54.69 53.60 54.68 55.07 54.64 53.21 55.40
42.64 45.67 45.36 44.41 44.08 42.54 46.96 41.28 45.12 46.66 47.71 49.27 50.57 51.95 52.41 53.11 53.64 53.83 54.25 55.19 55.82 56.61 57.10 56.43 56.19 56.22 55.58 55.84 55.30 54.81 53.60 52.41 53.44 53.61 53.79 53.37 53.58 53.15 53.27 53.14 53.63 53.73 53.51 53.08 52.97 52.98 53.52 53.31 51.96
44.54 46.96 45.43 45.00 44.64 44.32 44.23 42.60 44.73 47.48 45.63 47.07 49.26 50.94 51.97 52.56 53.35 53.50 53.88 54.31 55.08 56.02 56.02 56.36 56.03 55.70 55.44 54.67 54.68 54.23 53.23 53.24 53.50 53.19 51.91 51.91 52.23 52.59 52.24 52.28 52.36 52.41 52.27 52.22 52.19 52.33 52.38 52.58 51.87
48.05 45.48 45.47 46.19 45.96 39.94 41.83 41.80 42.55 45.82 44.64 47.05 49.29 50.88 52.00 52.79 52.54 53.33 54.20 54.68 54.88 55.96 56.25 55.82 54.96 54.37 55.04 54.78 53.89 53.01 52.70 52.55 51.67 50.77 49.78 49.93 50.39 50.78 51.33 51.11 51.43 51.46 50.74 50.38 50.34 50.50 49.88 49.66 49.24
48.15 44.14 40.35 37.97 38.60 37.75 41.80 40.84 42.73 45.35 47.27 48.26 48.78 50.45 51.74 53.10 53.05 52.76 52.84 53.46 54.28 54.47 54.55 53.76 53.92 53.19 54.11 53.63 52.06 51.99 52.09 52.11 50.94 50.08 49.07 48.33 48.23 48.70 49.88 49.86 49.95 49.80 49.58 49.31 50.19 50.03 48.19 45.26 44.09
44.72 44.38 39.17 30.11 34.59 37.42 41.81 38.11 43.12 47.59 48.95 49.25 49.63 50.12 50.89 51.52 52.44 52.35 52.67 53.37 53.57 53.57 54.07 54.15 52.85 52.43 52.52 51.59 51.40 52.08 52.53 51.84 50.37 49.59 48.25 47.39 47.63 48.33 49.26 48.85 49.14 49.22 49.11 48.95 48.87 46.38 44.60 45.04 45.28
43.98 41.80 44.29 37.77 33.00 36.35 40.92 42.51 45.91 47.45 47.54 48.17 48.36 49.30 49.94 50.78 51.16 51.77 52.61 53.24 53.43 53.31 52.28 53.47 52.72 52.80 52.68 52.45 52.67 51.99 51.76 50.11 48.49 47.99 47.65 47.37 47.95 47.64 47.81 48.32 47.38 45.83 45.98 45.73 45.02 43.44 41.93 42.10 41.98
46.47 46.46 40.52 41.54 31.72 28.33 37.09 38.30 40.06 43.96 45.62 46.48 47.39 48.50 49.98 51.24 51.67 52.44 52.99 52.35 52.74 53.75 54.03 54.15 53.98 52.89 52.70 52.34 51.57 50.41 49.33 48.63 47.13 46.56 46.15 46.46 46.98 47.62 46.32 45.18 44.74 44.34 44.51 44.44 43.61 42.43 41.12 40.48 40.55
44.75 43.54 41.98 41.87 39.73 32.89 30.75 36.79 46.12 45.05 45.97 45.89 48.06 49.12 49.98 50.72 51.46 51.91 52.38 52.91 53.13 53.68 53.51 52.95 52.87 52.20 51.45 50.66 49.70 48.71 47.76 46.46 46.10 45.79 45.61 45.62 45.81 45.07 44.48 44.10 43.90 43.24 41.62 41.10 40.64 40.26 40.64 40.34 39.83
45.61 43.12 42.02 37.28 31.65 37.15 35.65 35.97 46.87 47.36 47.50 47.50 48.16 48.81 50.07 50.81 51.57 51.80 52.26 52.32 52.31 52.02 52.03 51.73 50.96 49.57 48.42 47.58 47.11 46.97 46.11 45.91 45.20 44.99 45.01 44.47 44.08 44.50 44.01 43.01 41.74 41.73 41.25 40.84 39.70 39.58 40.07 39.19 38.41

GFSSGP_sfc_wetblb_009.txt.gz
Wetbulb
61.18 59.68 59.33 57.92 50.49 51.32 50.59 52.34 57.18 55.85 57.13 61.29 60.65 59.88 58.78 61.03 59.53 55.48 67.65 67.57 70.35 71.54 71.99 72.36 72.02 72.71 72.48 71.87 71.65 71.55 71.88 71.61 71.06 70.77 70.08 70.18 70.22 69.87 68.84 67.81 67.46 67.55 68.12 68.28 68.69 69.28 69.65 69.45 68.88
59.82 57.24 57.48 54.97 48.74 47.42 49.58 53.16 54.23 57.22 59.18 60.12 59.38 59.02 58.67 58.24 64.44 64.86 64.61 67.26 70.64 71.86 72.35 72.67 71.36 72.46 72.34 72.08 72.01 71.84 71.78 71.21 70.60 70.50 70.18 70.08 70.05 69.38 68.59 67.30 67.06 67.70 68.30 68.72 68.91 68.86 68.20 68.13 68.61
59.63 57.66 53.39 51.37 49.84 48.06 49.04 53.51 56.39 58.06 59.42 59.18 58.11 60.63 59.74 59.26 63.25 64.15 66.07 67.78 69.85 70.80 72.12 71.51 70.73 71.40 72.30 72.58 72.43 71.87 71.67 71.29 70.93 70.64 70.54 70.24 69.77 68.93 67.90 67.10 67.08 67.35 67.99 68.16 68.01 67.50 66.52 65.84 66.08
56.30 54.14 54.00 49.29 49.71 51.81 52.44 55.87 57.22 57.24 59.36 59.95 58.51 57.42 63.36 65.28 63.76 65.60 66.06 66.90 67.58 68.37 70.51 69.25 69.80 70.48 70.78 70.56 70.80 70.88 70.73 70.14 69.69 69.84 69.85 69.65 68.71 67.39 66.74 67.00 67.27 67.84 67.85 67.35 67.36 67.49 67.34 66.93 66.35
54.99 54.26 50.27 49.49 50.19 52.98 56.06 57.08 57.67 56.68 57.60 57.74 57.75 55.89 60.59 66.67 66.91 65.74 65.25 65.08 64.97 65.38 67.02 68.92 68.80 69.53 69.47 69.34 68.92 69.12 69.52 69.56 69.38 69.32 69.19 68.66 68.21 67.65 67.25 67.17 66.83 66.09 65.78 65.71 65.67 65.87 65.90 65.85 66.21
51.43 54.29 49.43 47.23 49.38 53.40 56.21 57.77 56.48 55.29 56.56 56.33 56.42 57.59 61.23 66.94 65.43 65.38 64.85 64.11 64.44 65.33 66.60 66.48 67.21 68.37 68.22 68.43 68.18 68.37 68.61 68.32 68.33 68.68 68.44 67.99 67.30 66.93 66.56 65.87 65.38 65.18 64.96 64.51 64.05 64.14 64.22 64.16 64.19
51.16 52.41 49.33 49.40 49.01 50.16 52.66 55.83 53.58 53.40 54.46 54.12 57.18 55.19 61.16 63.30 65.40 65.43 64.22 63.87 64.09 65.83 66.55 67.11 67.42 67.53 67.35 67.19 67.28 67.77 67.78 67.42 67.22 66.58 66.67 66.79 66.20 65.69 65.10 64.59 64.22 64.11 63.74 63.40 62.90 62.29 62.14 62.61 62.55
53.23 53.66 48.44 48.60 47.25 47.12 50.92 51.95 54.57 53.58 53.96 57.34 57.57 53.33 56.81 63.44 65.23 64.91 64.10 63.65 64.62 65.65 67.03 67.84 67.94 67.69 68.27 68.36 66.48 66.85 67.12 66.93 66.24 65.46 64.92 65.23 65.38 65.04 63.86 63.31 63.43 62.94 62.46 62.30 61.49 60.79 60.65 60.57 61.09
53.95 48.61 45.93 45.81 46.08 46.66 49.89 48.75 51.12 54.05 53.93 54.83 55.89 59.02 60.69 65.53 65.68 64.17 63.21 62.99 64.86 65.62 67.30 67.97 67.66 67.39 67.04 66.47 66.54 65.58 66.47 67.02 66.31 65.92 64.93 65.44 67.63 67.19 66.12 62.90 62.00 61.61 61.16 60.97 60.63 59.95 59.67 60.06 60.50
50.65 48.18 46.68 48.89 49.08 48.41 49.19 49.40 49.69 50.98 52.12 51.00 54.13 57.65 63.27 64.73 64.67 63.09 61.74 61.78 63.96 65.48 66.41 68.77 68.80 67.86 66.92 65.19 67.13 66.89 66.00 67.41 68.06 68.21 68.09 67.65 67.64 67.33 65.81 63.89 63.05 62.50 61.91 62.03 61.66 61.28 61.66 61.68 62.35
50.81 47.82 48.82 48.47 49.61 49.79 48.76 48.64 50.06 49.42 48.48 51.40 52.52 56.23 61.76 62.69 62.71 63.11 63.08 62.92 63.82 66.01 66.15 68.10 69.63 68.86 67.18 65.80 66.48 66.99 66.91 66.65 67.05 67.96 68.00 67.56 67.08 67.27 66.07 65.73 65.53 65.21 62.82 63.36 62.89 63.14 62.90 62.86 61.47
48.54 50.02 49.92 49.40 49.58 49.45 48.28 50.40 49.11 50.12 50.53 53.55 54.59 58.66 61.21 61.94 62.10 62.68 63.17 62.97 63.95 65.27 65.16 67.82 69.64 68.16 67.80 67.16 66.99 66.54 66.26 65.70 66.05 66.48 66.97 66.48 65.34 65.51 65.21 63.76 63.49 63.20 62.54 62.82 62.78 62.30 62.93 61.86 59.42
48.81 49.46 50.05 50.21 49.92 49.96 50.81 49.55 50.21 49.68 52.55 53.63 55.64 58.56 60.28 61.84 62.15 62.82 63.62 63.93 64.35 64.13 65.33 67.05 69.38 67.43 66.20 66.45 66.69 66.64 66.34 65.98 65.94 65.82 65.38 65.00 64.25 64.48 63.58 62.95 62.14 61.80 61.59 61.56 61.37 61.40 61.02 60.05 58.97
51.27 51.16 51.39 51.86 51.59 51.46 50.17 50.51 51.47 52.16 53.48 53.12 54.08 56.55 59.14 60.18 60.92 61.66 62.60 62.80 63.59 63.99 65.35 67.35 68.29 67.47 65.37 65.51 65.73 66.13 65.32 64.68 64.69 63.81 63.38 64.23 63.99 63.79 62.50 61.79 61.14 60.96 61.01 61.06 60.97 60.99 60.79 59.70 58.52
52.11 49.27 51.07 51.34 51.93 51.03 51.84 49.07 49.32 52.96 53.50 52.80 53.09 54.83 58.02 59.71 60.57 61.14 62.72 63.38 64.46 64.45 65.20 66.95 67.98 66.65 64.60 64.89 64.45 64.07 62.95 63.20 63.51 62.94 63.31 62.86 63.05 63.07 62.84 61.70 61.37 61.03 61.99 62.83 61.48 60.99 60.56 59.83 59.02
49.69 50.49 46.99 50.60 51.56 52.05 51.84 47.38 51.16 53.71 53.38 52.88 54.18 54.28 55.59 58.70 59.94 60.93 62.10 62.90 63.80 64.55 64.67 66.32 66.89 65.08 64.12 64.00 63.45 63.95 63.65 63.65 63.08 63.23 63.05 62.50 62.26 62.28 62.13 60.86 60.85 62.11 62.24 61.12 60.72 59.72 59.07 58.87 58.43
48.85 45.20 44.97 47.55 51.24 50.70 50.65 48.67 52.37 54.10 53.26 52.75 53.83 54.89 55.12 57.05 59.88 61.51 62.14 63.10 63.67 63.85 64.35 65.58 67.03 62.73 62.85 63.68 63.54 63.44 63.09 62.19 61.14 61.05 60.71 61.07 60.55 60.71 60.67 60.00 60.73 62.76 61.15 61.70 61.09 60.24 60.17 58.54 58.51
44.86 44.04 45.48 45.20 49.13 49.23 48.44 48.70 51.34 52.69 52.59 53.08 53.95 54.81 55.32 55.41 58.96 62.01 63.17 62.77 63.13 62.85 63.88 65.44 65.50 62.08 62.41 63.77 63.18 61.00 60.79 60.92 60.96 60.58 59.83 59.90 59.65 59.68 59.38 58.94 60.11 60.46 58.69 59.42 60.00 60.57 59.50 59.90 59.21
46.54 45.35 44.82 47.28 49.06 48.18 48.22 48.20 49.84 52.18 52.92 53.03 53.36 53.80 54.18 55.32 60.64 61.59 60.35 60.44 62.08 63.69 63.80 64.34 62.43 61.56 61.25 60.53 59.05 58.36 57.93 58.84 59.36 59.44 59.34 59.19 58.31 57.41 57.22 56.32 56.81 57.47 56.58 57.66 58.59 58.41 57.94 58.06 59.14
46.67 45.32 45.17 47.14 48.41 48.83 48.78 48.17 49.84 51.36 51.96 53.32 53.25 54.29 55.44 56.39 56.88 57.67 59.04 60.14 61.44 62.33 62.20 60.77 59.69 58.73 59.04 59.04 58.63 58.83 58.64 58.41 58.55 58.90 58.38 57.89 57.07 56.39 55.50 55.24 54.78 55.10 54.30 56.51 56.93 57.16 55.70 56.38 57.90
46.96 45.86 45.98 45.54 48.14 49.37 48.57 47.29 48.06 50.50 52.12 52.63 53.70 54.44 55.00 54.86 54.94 56.18 57.20 58.62 59.41 59.17 59.10 58.53 58.30 57.98 58.11 58.34 58.08 57.72 58.03 57.86 56.81 56.55 56.32 56.52 55.97 55.07 54.51 54.31 54.13 54.83 55.00 53.90 55.54 55.26 54.23 52.60 54.90
45.10 47.71 47.07 46.18 45.38 43.39 49.17 43.04 47.11 48.87 49.43 51.05 52.46 53.47 53.78 54.25 54.94 55.71 56.63 57.35 58.07 58.10 58.52 58.18 57.94 57.36 57.13 57.44 56.83 56.06 54.80 53.68 55.04 55.55 55.45 54.58 54.56 53.61 53.09 53.22 53.41 53.48 53.64 53.52 53.37 52.62 53.29 52.86 50.41
46.73 49.16 47.43 47.44 46.06 46.15 45.86 43.32 45.99 48.87 47.33 48.96 51.27 52.27 53.47 54.50 55.25 55.46 56.03 56.69 57.43 57.93 57.76 58.15 57.36 56.89 56.92 56.50 55.95 55.17 54.85 55.15 55.69 54.81 53.56 53.61 53.21 52.89 52.31 52.31 53.04 52.39 52.19 52.27 52.39 51.83 50.81 50.60 49.48
50.42 48.55 48.08 48.60 47.19 40.83 45.04 43.71 45.03 46.97 47.92 48.71 50.93 52.27 53.45 54.30 54.91 55.22 55.86 56.40 56.85 57.74 57.61 57.53 56.70 55.71 55.93 56.06 55.83 55.55 53.73 52.12 52.12 51.93 50.98 50.93 50.88 50.69 51.30 50.84 51.46 51.44 51.29 50.78 50.17 50.68 49.88 47.97 47.81
49.74 47.00 41.81 39.64 40.11 39.17 45.05 42.03 44.93 48.01 49.54 50.49 50.51 51.85 53.32 54.57 54.74 54.41 54.74 55.30 55.72 55.68 55.73 56.65 56.25 55.84 56.31 55.94 54.69 53.96 53.28 53.29 52.14 51.24 50.18 48.86 48.37 48.70 49.66 50.08 50.16 49.82 50.21 50.28 49.95 48.20 45.36 45.11 42.50
46.44 46.67 41.03 32.72 36.30 39.54 44.73 39.49 44.75 49.87 51.03 51.22 51.41 51.85 52.70 53.22 53.90 53.78 54.28 55.04 55.58 55.48 56.36 56.61 56.03 55.20 55.54 55.30 54.67 54.71 53.95 52.60 51.34 50.11 48.46 47.26 47.45 48.22 49.26 49.32 49.53 49.38 48.39 47.98 47.40 46.02 45.76 44.45 44.47
46.24 43.79 46.57 40.75 38.78 37.89 41.94 44.57 48.51 49.50 49.40 49.88 49.95 51.01 51.62 52.53 52.92 53.32 54.24 54.94 54.83 55.38 55.95 55.79 55.51 55.26 55.39 54.85 54.52 53.37 52.28 50.68 49.20 48.27 47.93 47.45 47.86 47.70 48.49 48.54 47.33 47.17 46.17 45.29 44.56 43.51 42.46 43.00 43.16
48.30 48.50 42.43 43.44 32.69 30.35 38.69 39.78 42.04 45.64 47.09 48.86 49.12 49.98 51.26 52.66 53.08 53.81 54.11 54.44 55.10 55.32 55.62 55.92 55.57 54.56 54.44 53.69 52.34 51.22 50.07 49.58 48.26 47.51 46.81 46.96 47.17 47.10 46.81 46.10 45.19 44.64 43.28 42.87 42.34 42.73 42.97 42.10 42.09
46.54 45.69 44.08 43.20 40.96 34.05 32.47 38.00 47.13 45.97 47.30 47.43 49.08 50.30 51.14 51.92 52.70 53.19 53.51 53.26 54.30 54.98 55.17 54.47 53.34 52.34 51.36 51.42 50.27 49.30 48.83 48.07 47.45 46.70 46.84 46.16 45.17 45.06 44.47 44.20 43.66 43.09 42.39 42.66 42.49 41.59 41.44 40.84 41.01
47.66 45.14 44.01 38.70 35.14 38.93 36.96 37.19 48.80 48.20 48.27 48.76 49.47 50.08 51.29 51.85 52.32 52.34 52.70 52.43 52.45 52.59 52.72 52.67 51.52 50.25 49.82 49.49 48.63 47.98 47.82 47.36 46.75 46.12 44.36 44.66 44.60 44.92 44.36 43.77 42.85 42.14 41.96 41.56 40.92 40.25 40.36 39.50 38.85

GFSSGP_sfc_wetblb_012.txt.gz
Wetbulb
59.81 57.64 57.85 55.79 48.28 48.13 45.50 51.52 56.62 55.30 56.20 59.03 59.96 58.13 57.54 59.67 58.15 53.33 65.72 68.82 70.78 70.11 70.80 71.39 72.25 72.81 72.65 72.53 72.60 72.38 72.19 71.89 71.53 71.28 71.23 70.47 70.41 69.51 68.69 68.06 68.30 68.60 69.16 69.32 69.47 69.40 69.26 68.94 69.03
56.95 58.19 56.38 52.87 45.92 43.74 47.58 53.85 53.25 55.71 57.31 57.63 58.88 58.07 58.11 56.30 62.61 61.99 63.97 69.40 70.35 70.87 71.23 71.38 71.78 72.27 72.48 72.50 72.59 72.43 71.92 71.21 71.32 70.81 70.50 70.30 70.07 69.40 68.39 67.64 67.91 68.26 68.65 68.57 68.16 67.80 67.22 66.68 66.52
58.60 57.74 51.33 49.06 46.67 43.97 47.90 53.83 55.45 56.26 57.47 57.89 56.94 61.03 59.24 57.86 61.90 62.26 66.85 69.56 71.74 70.86 70.46 70.64 70.88 71.62 72.35 72.36 72.37 72.16 71.81 71.42 71.28 70.93 70.49 70.44 69.46 68.04 67.55 67.53 68.08 68.23 68.04 67.70 67.72 67.78 67.49 67.13 66.80
56.21 54.22 51.35 46.01 45.68 50.96 51.99 55.19 55.95 55.66 58.36 58.94 58.61 56.40 60.69 63.41 61.86 63.94 66.67 68.26 68.38 68.70 69.01 68.91 69.59 70.25 70.87 71.12 71.29 71.20 70.71 70.16 70.04 70.42 69.92 69.26 68.35 67.54 67.66 67.78 67.63 66.89 66.41 66.37 66.35 66.16 66.10 66.14 66.42
56.50 52.29 45.65 46.78 49.33 52.59 55.32 56.09 56.09 55.51 56.11 56.48 57.38 56.98 59.10 62.61 63.38 63.93 64.69 65.52 65.00 66.61 67.70 67.86 68.22 69.38 69.80 69.80 69.70 69.87 69.88 69.57 69.79 69.36 68.78 68.44 67.84 67.53 67.06 66.51 66.11 65.55 65.30 64.94 64.74 64.68 64.88 64.82 65.21
49.81 50.85 44.53 45.12 49.14 53.04 54.97 56.45 56.63 56.74 56.77 55.05 56.54 58.20 59.53 63.27 62.24 62.64 63.10 63.37 63.68 65.40 65.62 65.75 68.27 68.52 68.45 68.62 69.00 68.93 68.63 68.59 68.79 68.50 68.07 67.30 66.90 66.72 66.20 65.65 65.15 64.69 64.33 63.90 63.50 63.07 63.18 63.49 63.71
48.94 47.36 44.44 48.51 48.83 50.92 53.90 56.33 53.34 53.11 54.11 54.15 57.36 55.83 59.98 61.62 62.93 62.54 62.36 62.66 64.01 64.38 64.24 65.07 65.53 66.52 67.36 67.06 67.57 68.02 67.79 67.70 67.22 67.06 67.02 66.77 66.30 66.16 65.38 64.68 64.18 63.68 63.14 62.64 62.13 61.66 61.69 61.85 62.56
50.80 48.69 45.49 48.89 46.95 47.42 51.53 53.13 54.38 53.70 52.63 56.36 57.56 54.04 55.60 61.40 63.24 62.48 61.77 61.98 63.24 65.16 65.69 65.91 65.90 66.57 65.99 65.57 66.38 67.15 67.19 66.94 66.49 66.24 66.13 66.26 65.94 65.99 65.00 64.85 63.40 62.50 61.78 61.52 61.06 60.74 60.76 60.99 61.24
52.59 46.05 46.15 46.56 47.33 46.57 49.76 48.58 51.65 53.93 53.44 54.55 57.72 57.31 61.50 62.97 62.93 61.42 60.79 61.29 62.57 64.47 66.00 66.15 65.74 65.93 66.98 65.47 65.82 66.48 67.17 66.78 66.18 65.98 65.36 64.51 65.67 65.13 64.08 63.57 63.62 62.69 62.22 61.91 61.70 61.47 61.50 61.04 61.03
49.48 47.03 46.35 48.70 48.90 47.65 48.55 48.89 49.09 50.46 51.12 51.50 55.59 60.38 63.57 62.97 62.07 60.28 59.35 59.60 61.86 63.83 64.93 66.95 66.42 65.78 65.21 64.51 65.01 66.56 66.60 66.49 66.35 66.54 66.29 66.21 65.73 65.24 64.77 64.36 63.61 63.74 63.43 63.14 62.88 62.75 62.52 62.11 59.36
50.08 46.37 48.43 48.43 49.12 49.55 48.18 48.18 50.04 49.49 48.01 51.03 52.24 55.82 61.57 61.90 61.64 60.57 60.06 60.62 62.46 64.28 64.90 67.37 67.70 66.83 66.10 65.08 64.18 65.29 65.40 65.22 66.25 67.59 65.53 66.08 64.95 66.01 64.43 63.70 63.50 62.61 62.79 61.98 61.61 61.57 60.25 60.35 58.67
47.67 49.50 49.43 48.86 49.14 48.80 47.46 49.41 47.97 49.35 50.34 53.45 55.07 57.34 60.83 60.11 60.34 60.97 60.78 61.24 62.42 63.60 64.14 67.31 67.24 66.63 66.07 65.83 65.37 65.74 64.89 64.05 64.70 64.63 65.50 64.36 63.28 63.43 62.22 61.37 60.12 59.75 59.37 59.28 59.35 58.46 59.77 59.44 57.72
48.47 48.78 49.27 49.31 48.88 49.62 50.51 48.74 49.58 49.22 52.12 53.99 56.21 58.59 59.92 60.53 60.95 62.00 62.54 61.54 62.39 62.87 64.17 66.09 66.96 66.12 66.65 64.94 66.10 65.58 65.05 64.26 64.13 63.68 63.86 63.15 62.23 62.12 61.72 60.60 59.84 59.42 59.12 58.29 57.68 57.62 57.95 57.73 56.97
50.25 49.41 49.03 49.54 50.31 50.14 48.66 49.26 50.87 51.19 52.43 52.11 54.27 56.80 58.94 60.35 61.12 61.46 62.13 62.18 62.54 63.52 64.81 66.97 67.02 65.87 65.01 65.04 64.40 64.66 63.50 63.72 63.21 62.67 61.52 62.46 61.52 61.09 60.65 59.60 59.39 58.95 58.75 58.51 57.45 56.73 57.32 57.20 56.85
50.87 48.17 49.80 50.29 51.09 49.94 50.67 48.12 47.96 52.32 52.80 51.59 51.95 54.17 57.40 59.14 60.23 60.38 61.80 62.81 63.39 63.10 64.30 66.19 66.05 65.08 64.15 64.16 63.87 63.40 61.27 61.34 61.33 61.69 61.51 61.25 61.11 60.33 60.15 59.30 58.94 58.94 59.37 58.95 58.06 57.55 56.68 56.31 57.02
48.26 49.42 45.59 49.69 50.82 51.50 50.27 45.16 49.98 52.65 51.90 51.52 52.48 52.84 54.60 58.20 59.27 60.98 62.32 62.75 64.03 65.17 61.51 64.38 65.85 64.53 63.87 63.91 62.21 62.28 62.60 61.51 61.41 61.35 60.80 60.84 60.57 59.88 59.13 58.54 58.55 59.50 59.27 58.38 57.48 56.74 55.82 55.19 54.85
47.85 43.49 45.75 47.37 51.04 50.86 49.62 47.16 50.64 53.05 52.69 52.01 53.06 53.84 53.91 55.26 58.86 60.41 61.57 62.20 62.76 62.24 63.92 64.32 65.81 63.30 62.46 63.02 62.02 61.89 61.63 60.68 59.83 59.11 59.54 59.25 59.10 59.37 57.96 57.14 57.86 58.45 57.25 56.80 56.43 55.37 55.52 54.39 54.36
43.11 43.94 45.01 44.66 48.50 48.22 47.03 47.82 51.30 52.54 52.40 52.47 52.67 53.19 54.44 54.44 57.02 60.41 61.18 62.85 63.21 63.89 63.57 64.76 64.62 61.64 62.01 62.63 61.66 60.20 59.25 59.35 59.62 59.21 57.88 58.33 58.02 57.04 56.07 54.96 55.72 56.72 54.37 53.78 53.96 53.72 53.49 53.30 53.55
46.59 45.25 44.54 47.40 49.01 47.17 46.95 48.00 49.65 51.76 52.42 53.57 55.12 54.78 55.04 57.17 59.79 59.71 60.60 61.26 62.58 63.66 61.99 61.30 60.37 60.55 60.10 59.88 58.19 57.14 56.32 57.45 57.76 57.80 57.76 57.17 56.40 55.56 54.47 53.54 52.74 52.85 52.06 52.15 52.11 51.28 50.10 50.68 51.79
46.69 45.18 45.07 47.28 48.65 47.12 48.11 47.11 49.65 51.05 51.77 52.73 52.99 53.87 55.52 55.81 56.37 57.91 59.24 60.17 60.28 60.16 60.31 59.43 58.49 58.18 57.67 57.38 57.35 57.02 57.17 56.73 56.82 57.52 56.54 56.76 55.46 54.49 53.38 52.86 52.15 51.68 50.78 50.32 50.50 50.84 49.46 48.82 49.60
47.09 45.27 46.04 45.18 48.01 48.85 47.32 46.26 47.23 50.24 51.62 52.54 53.48 54.32 54.64 54.49 54.76 55.99 57.05 57.75 58.62 58.29 58.04 57.45 57.09 56.63 56.66 56.95 56.51 55.86 55.92 55.06 54.35 54.08 54.05 54.79 54.63 53.98 52.84 51.86 51.82 50.97 50.23 48.74 48.90 49.07 48.25 46.85 47.67
44.38 48.67 47.06 45.82 44.58 40.96 47.48 39.46 45.82 48.17 48.87 50.56 51.60 52.70 53.07 53.60 54.68 55.58 56.32 56.55 56.72 56.89 57.95 57.18 57.37 56.63 56.67 56.28 55.50 54.18 52.98 52.15 53.97 54.78 53.67 53.35 53.33 52.41 51.04 50.57 50.53 49.95 49.85 48.48 48.79 49.27 47.89 47.02 44.83
46.51 49.10 47.06 46.75 44.97 44.47 45.21 42.39 45.42 48.14 46.41 48.34 50.57 51.96 53.08 54.19 54.68 54.56 55.24 55.88 56.60 57.36 57.28 57.45 57.05 56.44 56.63 56.24 55.12 53.57 53.91 53.14 52.56 52.29 51.76 51.01 50.71 50.20 49.96 49.35 48.49 48.55 48.24 48.35 48.30 47.13 47.01 46.42 43.91
50.35 48.66 48.13 47.80 45.93 40.54 43.92 43.35 41.85 45.02 46.60 48.45 50.54 51.99 53.13 53.79 54.42 54.71 55.79 56.32 56.13 57.50 57.36 57.17 56.32 55.93 56.12 55.76 54.99 52.75 51.32 51.29 50.57 50.32 48.72 47.65 47.66 47.54 48.01 48.66 48.16 48.29 48.07 47.52 47.06 46.70 44.52 43.11 43.26
49.22 46.69 40.79 39.08 39.85 38.33 45.62 41.99 44.06 48.13 49.58 50.06 50.37 51.39 52.97 54.13 54.37 54.45 54.56 54.81 55.61 56.01 56.72 56.52 56.04 55.14 55.70 54.99 53.72 53.54 52.53 51.39 49.27 48.22 46.77 45.51 45.33 45.56 45.69 47.08 47.04 46.76 46.51 46.86 46.34 45.86 44.82 43.76 42.23
46.77 45.64 40.97 32.54 34.07 38.22 44.41 38.99 42.69 49.41 50.70 51.31 51.31 51.83 52.80 53.12 54.00 54.02 55.04 54.71 54.96 55.70 55.80 56.19 55.29 54.22 54.48 54.65 53.78 53.17 51.70 49.59 48.60 47.28 45.66 44.97 44.75 45.09 46.06 46.11 46.17 45.44 44.71 44.29 43.82 43.63 42.69 41.70 42.10
46.09 42.61 45.99 41.34 38.67 36.89 39.89 44.26 47.48 49.10 48.76 49.61 49.80 50.57 51.38 52.81 53.85 54.17 54.98 55.08 54.78 54.85 54.96 54.77 54.52 54.19 53.61 52.30 51.75 51.21 49.82 48.87 47.23 46.21 45.77 44.95 45.43 45.37 44.56 44.51 43.88 43.83 42.92 43.17 42.50 41.07 40.81 41.47 40.68
47.41 47.84 41.47 43.39 33.14 30.50 37.19 39.12 39.80 44.99 46.73 48.50 48.63 49.28 50.51 51.77 52.39 53.36 53.35 53.67 54.01 54.22 54.49 54.55 52.62 51.65 51.50 50.81 49.57 48.68 48.24 47.91 46.58 45.91 44.85 44.50 44.06 44.08 43.52 43.54 43.40 43.06 42.45 42.20 41.56 40.75 40.79 40.15 40.32
45.58 44.42 44.39 42.94 40.75 33.59 31.63 36.34 45.80 45.68 47.33 46.95 48.25 49.67 50.66 51.08 51.21 52.02 52.63 53.05 53.05 53.25 53.16 51.93 50.59 50.08 49.68 49.37 48.64 47.89 47.22 46.87 46.29 45.21 43.98 43.35 42.93 43.29 43.22 42.67 42.09 41.64 41.23 40.80 40.10 39.97 40.27 39.06 38.21
46.79 44.52 44.02 38.95 35.98 39.83 37.35 35.74 48.25 47.91 48.46 49.09 48.52 49.41 50.56 51.25 51.17 51.14 51.27 51.30 50.99 50.62 51.21 50.45 49.82 49.38 48.79 48.25 47.31 46.45 46.69 45.57 44.09 43.78 42.81 42.25 41.84 42.28 41.40 41.00 40.23 40.00 39.43 38.99 38.58 37.88 37.89 37.61 36.90

GFSSGP_sfc_wetblb_015.txt.gz
Wetbulb
56.61 54.11 53.68 51.32 43.70 42.40 39.91 46.88 52.79 52.61 52.05 57.54 59.16 57.93 56.39 57.55 54.85 50.52 67.22 68.05 68.84 69.18 70.70 71.31 71.38 71.96 72.38 72.51 72.26 72.17 72.14 71.81 71.13 71.11 71.05 70.40 69.69 69.11 68.49 68.41 68.71 68.89 68.71 68.69 68.62 68.33 67.94 67.58 66.96
56.24 55.89 52.74 48.15 41.34 38.13 41.61 52.19 49.78 51.15 54.19 58.50 58.04 57.68 56.02 53.53 60.03 61.84 64.31 68.10 69.54 69.84 70.57 70.88 71.13 71.70 72.28 72.09 71.71 71.48 71.61 71.17 71.37 71.01 70.60 70.32 69.49 68.46 67.95 68.08 68.88 68.54 68.09 67.91 67.96 67.99 67.78 67.44 67.22
57.22 55.66 46.95 43.90 41.03 38.45 43.61 51.49 50.59 52.57 55.60 56.87 55.77 58.00 56.72 54.93 60.35 61.89 68.51 69.54 69.50 69.30 70.60 70.98 70.89 71.32 71.96 71.80 71.60 71.45 71.21 71.20 71.03 70.95 70.23 69.14 68.20 67.76 68.05 68.21 68.60 67.38 66.90 67.02 66.92 66.55 66.42 66.23 66.21
53.82 50.66 46.49 40.59 39.49 44.29 49.90 51.19 53.30 54.48 56.10 57.97 56.88 53.59 58.07 60.55 60.18 65.18 68.77 68.44 67.44 67.12 68.34 68.94 69.36 70.14 71.18 71.39 71.14 70.66 70.07 70.08 70.11 70.05 69.12 68.51 68.02 68.10 67.79 66.89 66.45 65.74 65.36 65.29 65.02 64.84 64.94 65.04 65.21
53.57 47.92 40.82 39.67 42.83 50.62 52.04 53.46 54.52 53.14 53.61 57.27 57.93 53.27 54.22 59.42 62.10 62.69 65.85 66.53 65.22 65.00 66.57 67.71 67.95 69.12 70.00 70.39 70.02 69.74 69.48 69.50 69.36 69.22 68.58 67.97 67.85 67.14 66.64 65.94 65.43 64.90 64.36 64.03 63.61 63.10 63.20 63.60 64.30
46.43 45.33 38.88 37.45 47.49 51.17 51.73 53.87 55.15 54.28 54.91 57.58 56.41 54.76 53.51 58.06 57.99 59.48 63.46 63.71 65.02 63.98 64.81 66.32 68.29 68.26 68.44 68.84 68.82 68.25 68.30 68.61 68.74 68.64 68.15 67.49 67.21 66.85 65.85 65.20 64.49 63.83 63.10 62.56 62.42 62.15 61.96 62.61 63.36
44.78 42.55 39.64 41.04 44.71 48.48 50.34 52.24 50.50 53.90 52.56 56.55 58.71 52.76 54.38 55.88 57.41 58.00 59.77 62.91 62.84 62.93 61.95 63.49 65.18 66.48 66.80 66.67 66.94 66.83 67.20 67.02 67.19 67.25 67.10 66.83 66.59 66.34 65.93 65.19 64.20 63.22 62.42 61.76 61.51 61.83 62.30 62.48 62.73
47.09 44.29 41.43 41.14 44.80 42.99 48.74 49.00 49.15 50.18 47.37 54.50 58.18 52.19 51.63 55.66 57.52 57.28 58.71 59.17 60.08 60.91 61.74 61.42 62.62 63.51 63.59 64.59 65.87 65.92 66.18 65.95 65.66 66.04 66.06 65.64 65.48 65.49 65.41 64.98 64.48 63.62 62.77 61.83 61.60 62.11 62.38 62.21 61.58
48.69 40.40 39.58 41.79 42.90 43.04 45.95 44.80 46.93 51.14 50.99 55.68 55.76 57.35 57.76 58.16 57.57 55.96 55.20 56.82 59.02 61.75 61.74 61.78 62.24 62.45 62.30 62.68 65.23 65.80 66.15 65.79 65.25 65.28 65.35 64.32 63.44 63.75 63.25 63.57 63.72 63.62 63.38 63.10 62.96 62.96 62.46 61.80 61.43
44.34 39.85 40.99 43.97 44.57 42.60 43.98 43.89 45.88 47.60 48.46 52.68 56.06 58.41 58.61 57.99 56.67 55.47 54.94 56.24 58.26 59.93 61.55 61.16 60.86 62.82 62.07 64.25 63.34 63.29 65.05 64.61 64.13 64.01 63.51 62.80 62.45 62.53 63.01 63.05 63.37 63.54 63.38 63.26 63.07 63.46 62.91 62.09 58.86
43.36 40.49 43.56 44.39 45.26 44.93 43.20 44.38 46.95 46.49 44.29 50.60 54.65 56.51 57.43 57.34 56.53 56.06 55.75 57.65 59.74 60.71 62.49 62.80 61.58 60.84 60.72 61.03 61.45 62.63 62.59 62.95 63.29 62.97 61.58 60.63 61.97 61.20 59.67 60.46 60.80 59.74 61.93 59.77 61.24 60.02 59.69 58.17 56.71
43.17 45.58 45.52 44.69 45.56 45.27 43.52 44.19 43.90 42.52 45.47 51.75 56.62 59.15 58.36 57.47 57.46 56.84 55.98 56.95 58.80 59.95 63.20 62.64 61.64 61.24 60.48 61.07 60.72 60.33 59.35 60.44 60.84 60.86 60.64 59.23 59.09 57.47 57.70 56.25 55.85 55.92 55.68 56.34 55.95 55.20 55.50 56.03 56.11
44.70 44.60 45.85 45.89 46.21 45.79 47.70 44.80 45.68 44.75 48.61 51.89 56.08 58.99 57.99 58.08 57.20 58.33 57.91 59.07 59.85 60.23 63.27 62.51 61.45 60.70 60.56 60.65 60.00 59.58 59.97 58.93 59.77 59.26 59.15 58.42 58.62 56.50 56.57 56.63 56.06 55.31 55.46 54.61 54.11 53.96 54.66 55.28 55.43
46.95 45.58 44.44 44.39 46.12 46.77 45.78 45.17 46.60 45.67 47.97 52.01 55.46 56.55 56.32 57.32 57.60 57.41 57.62 58.86 59.40 61.31 63.78 62.16 61.21 61.57 60.46 59.94 59.81 58.76 57.54 58.71 58.64 56.98 58.11 58.58 57.22 56.10 56.37 55.60 56.14 55.14 55.32 55.59 54.82 54.21 54.26 54.66 55.02
47.97 44.02 44.82 45.40 46.46 45.50 46.37 43.00 43.96 46.90 47.82 48.65 50.60 53.93 55.54 57.84 58.05 58.01 57.88 57.58 60.10 60.18 63.08 62.56 63.01 62.71 60.29 59.34 59.02 58.57 55.32 57.14 56.47 56.52 57.00 57.43 57.45 55.88 55.83 55.22 55.47 55.61 56.62 55.42 55.16 54.87 54.38 53.74 54.40
44.13 43.93 39.57 45.01 47.25 46.87 44.99 39.18 45.17 47.72 47.85 45.90 47.88 49.01 51.91 55.82 56.99 56.96 57.38 58.27 58.91 62.07 62.83 63.69 64.61 62.72 60.64 59.32 57.92 57.32 56.91 55.89 56.01 56.51 56.44 56.12 56.43 55.22 53.87 53.61 53.59 54.86 55.04 54.36 53.93 53.77 53.21 52.73 52.39
41.61 36.81 40.44 42.95 47.46 46.85 43.99 41.59 45.55 47.20 47.67 46.37 46.15 46.72 48.17 50.55 53.75 56.58 57.26 57.32 57.60 59.58 61.58 59.53 60.78 61.24 60.30 59.19 56.98 56.37 55.67 55.20 54.67 54.49 54.23 54.71 54.66 54.12 52.15 51.28 51.14 52.55 52.01 51.34 51.54 51.30 50.64 49.72 50.10
38.05 39.47 39.98 40.27 41.27 43.38 40.64 40.12 44.92 47.14 48.07 46.69 45.29 46.40 46.83 51.84 53.89 56.85 57.68 58.71 58.41 58.83 61.21 61.21 60.28 59.41 57.48 56.48 55.30 54.17 53.86 54.28 54.06 52.98 53.21 53.71 52.74 52.65 51.07 50.39 50.45 50.05 49.80 49.11 48.92 47.81 48.63 48.15 48.46
43.45 41.58 40.65 40.74 45.41 43.49 42.13 41.47 44.57 46.67 46.89 46.24 47.34 51.07 51.56 52.70 55.52 56.45 56.70 56.72 57.20 56.80 56.92 56.06 55.74 53.39 53.86 52.84 51.85 51.45 50.99 52.31 52.46 52.56 53.37 52.30 51.72 52.27 50.44 49.77 49.36 48.98 48.42 47.58 47.62 47.40 47.55 47.17 47.76
44.11 42.38 40.97 43.06 45.97 42.47 40.77 40.40 44.49 47.14 46.86 47.39 49.35 49.70 50.63 52.07 53.32 54.40 54.58 54.04 53.82 53.29 53.46 53.22 52.51 52.83 52.37 51.83 51.68 52.44 52.06 51.77 52.14 52.16 52.32 52.18 51.38 50.55 51.01 47.96 47.87 47.56 47.62 46.74 45.92 45.58 45.41 45.36 45.94
43.63 42.11 41.38 41.61 44.09 42.76 41.33 39.75 43.13 46.80 48.71 49.91 49.16 49.83 50.70 50.92 51.17 52.88 52.82 51.27 51.15 51.09 51.14 52.05 52.00 52.29 52.28 52.00 51.54 50.80 50.26 50.27 50.53 50.94 51.30 51.36 50.03 48.96 47.75 47.20 46.68 46.38 46.90 45.47 44.74 45.36 44.62 43.20 44.14
41.63 46.46 45.29 43.57 40.28 34.80 40.79 32.38 40.27 44.17 45.51 47.59 48.11 47.61 47.99 49.81 51.87 52.50 51.59 50.57 50.75 50.62 51.15 51.52 52.13 52.11 52.92 51.55 50.19 49.10 48.39 48.44 49.69 48.59 48.42 48.03 47.67 47.16 47.65 46.83 46.07 45.93 45.72 44.69 44.87 47.36 44.26 43.69 41.65
44.22 47.03 44.52 43.42 39.60 37.96 39.55 35.67 38.19 44.94 43.30 44.87 45.72 47.65 47.85 48.66 49.39 50.10 50.48 51.25 51.33 51.25 50.44 50.60 51.37 51.76 52.00 50.91 50.21 49.50 48.06 48.07 48.77 47.88 45.67 45.45 45.66 46.02 46.48 46.52 45.38 45.07 45.43 44.73 43.92 43.05 42.36 42.53 41.78
47.76 45.74 44.85 43.35 40.40 31.22 39.95 38.05 38.44 41.01 43.87 45.18 47.37 48.38 48.46 48.09 49.11 50.15 51.08 51.95 51.16 50.81 50.59 50.72 50.99 51.29 51.74 52.20 50.89 48.61 47.54 47.23 45.64 44.49 43.43 43.41 43.78 44.30 44.21 45.25 44.07 44.55 43.92 43.10 43.32 43.40 42.51 43.30 42.83
44.93 41.26 31.17 30.28 29.23 29.16 43.08 39.07 38.87 44.29 46.36 47.24 47.18 46.83 47.90 48.49 48.07 48.38 49.31 49.98 50.31 50.07 49.93 50.34 50.69 51.02 51.40 50.37 49.60 48.09 47.16 45.38 43.97 42.44 41.73 41.71 42.03 41.84 42.27 42.74 42.73 42.23 42.15 41.95 41.49 41.43 42.48 42.12 41.00
42.99 41.32 29.58 27.59 26.69 30.04 39.31 35.64 37.78 45.67 47.34 48.16 48.34 47.99 48.62 48.19 48.84 48.19 49.21 48.72 49.26 51.30 49.47 49.99 50.67 50.44 49.73 48.90 48.25 47.12 46.08 45.72 43.72 42.75 42.25 41.59 41.36 41.25 41.33 41.48 41.74 41.90 41.51 40.98 40.51 41.42 39.67 40.33 39.45
43.43 36.37 42.03 35.05 31.66 27.56 34.74 39.36 43.83 45.97 46.54 47.41 47.02 47.36 48.07 47.83 48.13 48.57 49.33 49.09 49.51 49.37 49.11 48.56 48.71 48.53 48.04 47.13 46.34 46.02 45.49 44.40 42.91 42.33 41.29 41.25 40.65 42.05 40.77 40.93 41.07 40.89 40.74 40.73 40.01 38.47 38.76 39.10 38.60
43.56 44.55 35.06 33.79 25.78 25.63 32.07 35.74 36.42 42.26 44.05 46.65 45.30 45.24 46.27 46.21 47.34 47.85 48.17 47.78 48.20 48.37 48.11 47.49 47.19 46.79 46.97 46.68 45.41 45.79 44.98 44.29 42.62 41.41 40.20 39.84 39.83 40.15 40.28 40.21 39.80 39.15 39.40 39.76 39.26 37.88 37.95 37.84 37.73
41.16 39.84 40.32 39.03 32.86 25.89 23.45 29.72 40.89 43.10 45.35 44.08 44.38 45.39 45.06 45.28 45.83 46.53 47.18 47.07 47.01 47.30 47.00 46.30 45.67 45.76 44.85 44.17 43.81 42.63 42.60 42.16 41.49 40.62 39.75 39.36 39.29 39.16 39.64 39.32 38.60 37.51 37.37 37.06 36.93 36.65 37.35 37.23 36.06
43.23 41.33 41.04 28.62 30.26 29.34 27.82 29.36 43.39 43.63 44.79 44.60 44.80 45.96 45.74 45.92 45.41 45.75 46.23 45.81 45.23 45.00 45.40 44.73 44.62 44.31 44.50 44.38 43.48 42.50 42.11 40.52 39.56 39.33 38.93 38.51 38.39 38.95 38.54 36.97 35.39 35.30 34.46 33.96 32.91 32.35 32.64 31.74 30.84

GFSSGP_sfc_wetblb_018.txt.gz
Wetbulb
54.89 52.56 52.74 50.83 43.83 42.06 37.45 43.90 52.54 51.78 52.37 57.59 59.01 56.13 54.05 55.82 53.52 50.91 65.63 67.75 69.24 69.42 70.27 70.63 71.11 71.97 72.31 72.27 72.09 72.14 71.96 71.24 70.94 70.42 70.15 69.61 68.86 68.27 68.13 68.44 68.47 68.58 68.53 68.23 67.99 67.75 67.58 67.52 67.19
54.66 54.51 51.84 46.96 40.62 36.64 40.58 49.09 51.59 53.79 56.08 57.74 57.68 58.04 57.37 56.37 62.35 63.11 64.30 68.37 69.40 69.74 69.99 70.24 71.15 71.58 71.90 71.78 71.57 71.38 71.20 70.77 70.72 70.37 70.05 68.92 68.03 67.74 68.28 68.34 68.01 67.48 67.09 66.79 66.75 66.39 66.25 65.90 65.94
55.33 54.55 46.28 42.84 39.24 37.30 41.97 48.53 51.56 54.34 57.15 56.23 54.61 56.60 56.33 57.34 62.89 63.54 66.98 69.08 69.68 69.40 69.90 70.52 70.66 71.06 71.43 71.43 71.47 71.31 71.20 71.18 70.99 70.00 68.76 68.08 67.98 68.13 68.06 67.12 66.37 65.82 65.53 65.26 65.18 64.90 64.76 64.68 64.65
53.28 48.97 45.43 39.60 36.54 41.23 47.06 49.61 54.40 54.94 56.36 57.28 55.87 53.31 57.13 61.38 62.74 66.72 68.82 68.71 68.43 68.90 69.35 69.33 69.78 70.63 71.38 71.12 70.70 70.46 70.29 69.98 69.89 69.42 68.32 68.08 68.07 67.31 66.55 65.84 65.27 64.81 64.31 63.95 63.42 63.31 63.23 63.41 63.78
52.14 46.11 39.14 36.52 40.81 49.01 51.54 52.87 55.12 53.75 54.89 54.55 55.84 52.72 54.82 64.30 67.53 67.13 66.89 67.68 67.01 66.80 68.36 68.76 68.43 69.73 70.61 70.48 69.89 69.77 69.69 69.44 69.16 68.97 68.53 67.69 67.02 66.36 65.85 65.22 64.66 63.87 63.24 62.84 62.68 62.49 62.41 62.59 63.18
45.54 44.77 38.29 36.78 46.82 49.58 51.35 53.46 54.73 55.30 54.26 54.74 54.61 54.23 53.39 64.42 63.90 64.84 65.79 65.50 66.21 65.14 65.93 67.05 68.68 68.75 68.97 69.12 68.83 68.39 68.48 68.41 68.47 68.48 68.16 67.07 66.91 66.28 65.32 64.70 63.87 62.90 62.04 61.85 61.87 62.45 62.46 62.60 62.84
44.41 41.75 38.43 38.72 43.92 48.29 48.86 50.75 52.09 54.61 54.25 53.61 55.31 51.78 53.13 56.80 62.07 63.05 63.13 62.94 63.31 63.54 63.86 64.25 65.56 67.05 67.19 66.72 66.63 66.70 67.34 67.42 67.58 67.47 67.21 66.85 66.54 66.25 65.93 65.07 63.95 63.07 62.04 61.59 62.27 62.76 62.42 62.68 62.53
46.15 43.50 39.60 39.02 46.09 44.96 47.02 47.31 49.22 51.63 49.47 57.63 57.16 49.88 50.43 54.10 59.31 61.59 61.07 60.27 60.45 60.41 62.54 61.96 63.15 63.67 63.52 64.04 65.59 65.78 65.76 65.82 66.02 66.21 65.83 65.29 65.31 65.57 65.67 65.10 64.54 64.17 63.06 62.75 63.21 63.06 62.65 62.51 62.29
47.35 40.46 37.61 40.81 43.00 45.11 45.93 47.20 47.93 51.14 54.06 54.04 54.32 54.40 55.76 55.79 57.57 56.83 56.30 56.29 57.64 59.41 59.79 60.40 60.99 61.74 62.11 62.89 64.85 65.49 66.06 65.35 65.07 65.15 65.26 63.99 62.99 62.94 62.74 63.64 63.15 64.13 63.73 63.46 63.65 63.71 63.33 62.24 61.81
43.96 38.81 40.36 44.57 45.19 42.66 43.63 45.35 46.19 50.71 52.31 52.38 53.19 55.64 55.45 56.00 56.61 55.81 55.67 56.03 57.18 58.25 59.43 60.10 60.21 60.16 61.11 63.74 63.40 62.90 64.10 63.51 63.09 63.13 62.66 62.38 61.66 61.90 62.73 62.77 63.85 64.02 63.68 63.53 63.65 63.59 63.20 62.30 58.32
42.91 40.61 42.57 43.72 44.26 44.12 43.63 44.58 46.64 48.79 48.17 53.73 52.23 53.60 54.36 54.05 53.66 54.96 55.84 57.71 58.60 59.74 60.90 60.24 61.63 61.13 59.59 60.78 60.95 61.38 62.12 62.29 62.41 62.44 61.94 61.10 61.20 61.16 60.27 59.46 59.89 58.65 60.59 58.99 58.71 58.86 56.98 57.27 56.51
41.35 43.58 43.63 43.23 43.54 43.01 43.57 44.11 43.75 44.42 48.41 56.72 56.49 56.15 54.78 54.16 54.24 54.58 55.34 56.15 57.75 59.72 60.45 59.95 60.25 60.13 58.48 58.68 60.44 61.01 61.01 61.47 61.38 60.64 59.47 57.99 56.77 55.87 55.24 54.28 54.37 54.57 53.98 54.36 54.09 53.56 53.20 53.70 54.83
42.32 42.88 44.13 44.57 45.97 43.23 44.30 42.49 44.08 43.58 52.68 57.57 57.22 56.91 56.07 55.85 55.30 56.26 56.61 57.39 58.61 60.70 60.96 59.74 59.32 58.70 59.16 59.38 58.94 58.92 58.92 59.40 59.16 57.92 58.00 57.84 56.27 54.42 55.36 54.47 54.90 54.05 54.33 53.52 53.34 53.19 53.25 53.63 54.22
44.67 43.76 43.00 43.74 44.87 45.26 43.97 43.93 45.44 43.91 51.39 56.64 56.95 56.10 56.71 57.04 56.85 56.62 55.32 56.18 59.34 61.97 60.29 60.18 60.29 60.18 59.31 59.09 58.73 58.63 57.33 58.13 57.26 56.46 57.22 57.36 56.85 54.86 54.64 54.12 54.14 54.03 54.36 54.30 53.21 52.84 52.91 52.98 52.87
44.74 41.54 42.33 42.70 43.67 42.87 45.20 41.40 41.38 45.45 51.94 55.81 56.24 56.46 56.57 57.27 57.85 57.34 57.16 56.56 59.88 62.69 61.45 60.63 60.63 59.96 59.74 58.82 58.81 57.58 54.71 57.49 55.46 55.00 55.71 55.85 55.65 54.51 53.20 51.89 51.32 51.94 52.75 52.46 52.17 51.98 51.77 50.90 51.67
42.32 41.85 37.79 42.70 44.59 45.10 42.80 38.17 43.63 44.63 48.41 51.49 54.14 54.96 55.40 55.74 57.08 56.99 55.15 55.58 59.97 61.59 60.47 61.35 62.80 60.35 59.26 58.89 57.47 57.19 55.82 54.50 55.04 55.25 54.98 54.73 54.29 52.95 50.85 49.82 49.54 50.99 50.44 50.33 49.82 49.66 48.86 48.25 47.98
39.58 34.69 38.00 40.62 45.29 44.04 41.87 39.78 43.35 44.40 46.14 46.20 47.56 47.53 49.38 51.96 54.18 55.71 55.89 57.36 61.29 61.11 60.39 61.16 60.33 59.13 58.59 58.41 55.74 55.02 53.44 52.98 52.80 52.60 52.79 52.20 52.35 51.96 49.90 49.04 48.85 49.09 48.74 48.44 48.11 47.24 46.63 46.23 46.70
36.18 36.83 35.40 38.38 40.16 42.13 39.76 39.12 44.24 43.80 43.88 43.81 44.53 49.85 51.33 52.16 53.02 55.26 56.09 57.86 59.56 59.24 59.59 59.45 59.72 59.33 57.29 54.40 52.77 52.88 52.43 52.83 51.67 51.08 51.27 51.15 50.95 50.65 48.99 48.85 49.05 48.75 47.73 46.79 46.20 45.36 45.95 45.32 45.42
42.59 39.32 38.45 38.56 42.89 41.91 40.11 39.79 42.54 44.60 46.65 47.23 49.02 49.98 50.43 50.59 52.37 53.23 53.31 53.86 53.74 53.90 54.17 54.59 54.80 54.16 54.07 51.37 50.30 50.71 49.89 50.25 50.06 50.73 51.08 50.72 50.13 49.59 48.80 48.00 47.06 46.86 46.55 45.47 45.48 44.87 44.15 44.72 45.16
43.47 40.44 38.91 41.89 44.61 41.10 39.91 40.00 42.39 45.28 45.17 48.38 48.86 49.10 49.33 49.97 50.47 51.29 51.61 52.24 52.90 52.83 53.05 51.86 50.81 51.03 50.93 50.55 51.33 51.54 50.26 49.80 50.43 51.84 50.35 49.24 48.08 47.73 47.45 45.42 45.12 45.42 44.97 44.21 43.52 43.25 43.41 44.02 44.47
41.88 40.09 39.43 39.96 41.65 40.84 41.70 38.76 41.52 45.09 46.71 47.68 47.93 49.28 50.14 49.69 49.24 50.27 50.73 49.75 48.82 49.10 49.37 50.23 50.24 50.97 50.67 51.17 50.21 49.98 50.26 49.48 48.68 48.18 46.66 46.48 47.47 47.00 45.67 45.09 44.61 44.38 44.20 43.36 43.03 43.44 42.74 41.70 42.73
39.33 44.44 43.30 41.44 37.84 33.12 38.42 30.33 37.99 41.87 43.58 45.61 46.60 47.20 48.61 50.05 50.39 50.35 49.52 48.70 48.84 48.22 48.61 49.59 50.60 50.50 50.51 50.29 49.16 48.59 47.77 46.93 47.14 45.64 44.10 43.98 45.17 45.05 45.05 45.00 43.85 43.61 44.01 43.28 43.47 44.00 42.08 41.59 40.11
42.22 44.97 42.50 41.41 37.12 35.88 37.18 33.31 36.38 42.68 41.51 43.06 44.27 46.34 47.09 48.24 49.41 48.66 50.09 49.65 49.31 48.89 48.41 48.89 49.59 50.08 49.93 49.21 48.87 48.40 46.00 45.94 45.54 44.17 42.94 43.35 43.94 44.22 44.36 43.99 42.97 42.76 42.93 41.92 42.11 41.19 40.48 40.74 39.73
45.76 43.75 42.90 41.12 37.99 29.85 38.14 35.56 34.80 37.87 41.21 43.52 45.34 45.86 46.56 46.76 47.55 48.74 49.73 50.05 49.31 48.58 48.76 48.11 49.55 49.63 50.05 49.26 47.89 46.38 45.87 44.51 43.05 41.96 41.71 43.37 43.28 42.16 42.04 42.64 41.47 41.12 40.75 39.91 40.13 39.91 39.71 39.32 39.15
43.11 39.02 29.82 29.21 28.17 28.11 40.93 36.92 36.60 42.75 45.90 46.29 45.13 44.96 46.11 46.55 46.61 47.56 48.40 48.25 48.18 47.89 48.19 49.10 48.75 48.64 48.96 47.84 46.46 45.53 43.97 42.77 42.60 43.51 43.13 42.74 41.40 40.59 39.60 40.29 40.31 40.32 40.32 40.30 39.79 39.68 40.69 40.42 39.57
41.16 38.58 29.09 27.61 25.26 28.42 38.14 33.22 36.37 44.03 47.73 48.03 47.25 46.75 46.50 46.10 46.20 46.22 46.29 46.43 47.03 47.65 47.30 47.70 47.13 46.61 46.79 46.81 45.35 44.81 44.41 44.95 44.72 43.95 42.46 41.85 39.57 39.46 39.43 40.13 40.53 40.55 40.25 39.83 39.17 38.37 38.19 38.87 37.22
41.02 35.04 40.42 32.74 29.70 26.09 32.80 37.08 41.63 45.16 44.74 46.57 47.43 47.54 45.26 44.72 45.10 46.26 46.73 46.34 46.62 46.45 46.19 47.43 46.75 46.03 45.85 45.26 44.30 43.92 44.72 45.30 44.35 42.08 40.60 39.63 39.30 40.52 39.46 39.43 39.04 39.21 38.60 38.83 38.45 36.92 36.43 36.04 35.94
40.93 42.63 34.24 31.40 24.57 24.87 30.03 33.22 34.61 40.16 42.62 43.49 43.16 42.60 43.53 44.80 45.10 45.24 45.46 45.89 45.88 45.77 45.08 45.07 45.12 45.01 45.20 44.41 43.57 43.79 43.38 43.44 41.17 40.10 39.06 38.75 38.58 39.10 38.39 37.82 37.47 36.86 36.11 36.25 35.82 35.01 35.28 35.06 34.32
39.18 37.58 37.91 36.21 30.54 24.93 22.47 28.58 38.69 42.20 43.34 41.17 41.44 42.80 42.93 43.40 44.16 44.80 45.28 45.10 44.19 44.56 43.55 43.01 42.61 42.98 43.24 42.77 42.65 41.65 41.09 41.30 40.44 39.21 38.76 38.20 38.30 38.72 39.43 38.16 35.93 34.73 33.77 33.43 32.07 31.89 32.33 30.97 30.09
41.05 39.46 37.94 27.51 29.44 27.62 26.10 28.37 41.62 42.02 42.36 43.31 43.34 44.07 43.15 44.28 44.55 44.55 44.33 42.98 42.26 41.86 41.79 41.43 41.65 41.85 42.73 42.98 42.22 40.88 40.48 39.53 39.35 38.90 38.73 38.68 39.37 39.72 38.78 37.57 35.52 34.58 33.40 32.36 31.20 30.88 30.69 29.77 28.77

GFSSGP_sfc_wetblb_021.txt.gz
Wetbulb
54.81 51.29 52.25 50.45 43.31 41.54 37.14 41.28 51.74 50.85 52.69 56.00 57.57 56.52 55.34 57.31 54.19 50.10 64.42 66.92 69.15 68.84 69.86 70.74 71.12 71.83 72.14 71.98 71.82 71.74 71.10 70.39 70.27 69.79 69.40 68.76 68.19 68.10 68.54 68.25 67.62 66.79 66.69 66.44 66.03 65.64 65.52 65.48 65.66
52.08 53.08 51.00 45.36 39.00 36.30 41.46 49.10 50.07 53.69 55.82 57.20 57.44 57.88 57.14 57.76 62.63 63.46 64.22 68.72 69.26 68.98 69.46 70.45 71.04 71.41 71.83 71.65 71.57 71.28 70.65 70.37 70.07 69.59 68.73 68.05 67.88 68.13 67.67 66.85 66.00 65.74 65.32 64.97 64.81 64.54 64.46 63.97 64.16
54.43 52.78 45.48 41.33 36.17 36.25 40.78 48.67 51.85 54.92 56.93 56.08 54.52 56.57 58.23 59.65 63.00 63.29 66.50 68.83 69.26 68.59 69.43 70.50 70.51 70.77 71.38 71.29 71.01 70.83 70.81 70.70 69.88 68.95 68.10 68.10 67.98 67.36 66.38 65.75 65.26 64.80 64.30 63.92 63.67 63.52 63.24 62.99 62.96
52.41 48.20 44.72 39.39 36.88 40.59 45.84 50.11 53.79 54.25 55.77 57.10 56.40 53.86 57.54 61.92 63.76 65.50 68.10 68.93 68.58 68.38 68.95 69.17 69.51 70.38 71.13 71.19 70.79 70.41 70.41 69.89 69.36 68.52 67.92 67.97 67.25 66.27 65.54 65.03 64.28 63.89 63.60 63.25 63.08 62.79 62.53 62.22 62.68
50.09 44.64 39.02 37.21 38.88 44.18 48.92 52.37 54.56 53.11 53.55 54.57 55.84 53.13 55.79 65.07 67.14 67.59 67.86 68.55 67.63 68.41 69.13 69.40 68.92 69.95 70.48 70.34 69.87 69.83 69.54 69.13 69.06 68.50 67.93 67.26 66.57 65.78 64.91 64.41 63.82 63.24 62.85 62.63 63.02 62.81 62.75 62.52 63.15
44.76 43.17 36.90 41.07 44.65 47.68 50.66 52.05 54.26 53.67 54.33 55.80 56.16 53.46 53.02 65.14 65.63 66.16 67.05 66.88 67.76 67.55 67.89 68.61 69.46 69.53 69.52 69.30 69.15 68.55 68.35 68.41 68.31 68.36 67.98 66.83 66.54 66.03 64.72 64.08 63.47 62.67 62.43 62.36 62.62 62.98 62.85 63.16 63.49
42.20 41.18 37.43 39.87 45.50 45.68 50.56 52.03 53.24 53.49 53.42 53.30 55.95 49.14 57.15 60.54 63.70 65.19 65.03 64.98 65.77 65.72 64.53 64.82 66.24 67.59 67.61 67.03 67.01 66.90 67.23 67.29 67.37 67.44 67.39 66.84 66.38 65.79 65.47 64.74 63.66 62.64 62.34 62.85 63.17 63.27 63.10 63.31 63.27
44.21 42.49 38.35 38.98 44.39 45.14 48.84 48.31 53.70 54.52 51.60 56.14 55.53 49.89 54.48 55.37 62.09 62.26 62.31 62.12 61.61 61.75 62.83 62.27 62.70 63.40 62.97 63.61 65.59 65.85 66.07 66.13 66.31 66.46 66.01 65.11 65.21 65.45 65.59 64.97 64.35 64.03 63.30 63.59 63.80 63.76 63.51 63.35 62.81
44.61 39.04 36.52 42.91 44.96 47.73 52.16 46.36 48.89 53.88 53.19 53.51 53.16 53.52 59.40 58.18 59.76 57.79 56.66 56.95 57.78 60.44 60.15 60.58 61.22 61.74 61.47 61.95 64.01 65.25 65.83 65.60 65.38 65.18 64.99 63.51 62.01 61.82 61.92 63.62 63.72 63.90 63.84 63.61 63.96 63.98 63.46 62.83 61.89
43.62 38.19 40.46 44.01 48.37 48.66 46.68 51.28 51.83 52.27 50.88 50.59 50.51 53.95 56.94 57.90 56.79 54.99 54.69 55.14 56.01 57.49 58.81 59.75 59.98 60.63 61.16 63.48 62.66 62.22 63.55 62.94 62.39 62.44 62.23 61.72 60.90 60.74 62.00 62.41 63.66 64.07 63.55 63.68 63.51 62.91 62.70 60.72 57.35
41.30 40.03 42.24 43.43 47.00 47.03 44.74 45.68 48.21 51.19 48.41 51.41 50.22 52.11 53.97 55.27 54.85 54.22 54.57 55.47 55.87 57.64 58.92 59.35 58.88 58.89 59.59 60.54 61.45 61.02 61.84 61.68 61.81 61.88 61.41 60.77 60.96 59.76 60.27 58.59 58.08 56.03 57.05 56.10 55.95 55.30 53.78 53.64 54.33
41.82 43.62 43.21 43.64 44.10 43.19 42.61 43.92 48.22 44.79 51.83 54.19 53.91 53.98 54.11 53.96 54.66 55.04 55.32 56.11 56.57 57.65 58.84 59.53 59.86 59.30 58.43 59.45 60.12 60.07 60.79 61.11 61.25 61.41 60.18 58.44 55.74 55.21 54.41 53.32 53.55 53.22 53.34 52.98 52.47 52.47 52.82 52.90 53.57
41.08 41.46 43.25 44.35 44.33 42.56 43.35 41.72 43.70 42.64 53.01 54.42 54.32 54.21 54.00 54.18 54.57 55.93 57.21 57.86 58.24 58.18 59.29 59.56 59.80 59.04 58.26 58.00 58.96 59.51 59.94 61.08 61.09 59.43 58.37 57.26 55.01 53.56 53.74 53.40 53.20 52.83 53.16 52.78 51.83 51.80 52.04 51.64 51.94
44.01 41.75 41.32 43.77 43.70 43.93 43.26 42.20 42.38 44.24 53.19 53.14 53.43 52.94 53.40 54.02 54.45 54.69 55.42 56.52 58.14 59.61 59.09 58.51 58.79 58.13 58.19 57.77 58.04 58.30 58.43 59.91 58.97 56.77 56.13 56.72 54.54 54.01 53.20 51.77 50.98 50.58 51.22 50.88 50.43 50.36 49.55 48.78 49.54
43.03 40.64 41.25 41.53 42.20 42.32 43.99 40.04 40.61 45.17 53.69 53.18 53.30 53.75 53.82 54.18 53.92 54.19 53.76 55.85 58.58 60.11 59.60 58.37 58.82 58.14 58.13 57.26 56.84 56.47 56.22 57.85 55.84 55.09 55.31 55.40 54.52 52.38 50.91 49.05 48.63 49.57 49.29 48.99 48.67 48.14 47.52 46.98 48.02
41.41 40.26 37.27 41.20 42.66 42.71 40.76 36.24 41.18 47.33 53.46 52.12 52.98 53.01 53.17 52.97 53.77 53.50 54.73 54.11 57.68 59.49 58.65 60.60 61.69 60.46 58.85 57.87 56.70 54.27 53.66 53.65 53.68 53.91 53.36 52.84 52.17 50.50 48.63 47.84 47.92 48.28 48.14 47.69 47.03 46.29 45.87 45.23 44.86
37.56 33.41 36.19 38.95 42.99 41.60 40.52 38.48 41.22 44.45 52.95 51.80 46.46 48.54 50.79 51.61 52.82 54.14 55.78 55.30 58.78 58.81 60.43 59.71 60.35 60.11 59.37 58.41 56.13 52.89 51.90 51.55 51.29 51.20 50.27 50.43 50.36 49.89 47.97 47.60 47.56 48.12 47.05 46.31 45.86 45.01 44.59 43.38 43.64
34.04 35.13 33.23 36.57 39.71 40.75 38.07 39.29 41.61 41.19 44.13 42.88 47.16 48.21 48.76 49.65 50.48 54.96 57.74 58.02 57.81 58.51 59.11 59.84 60.04 58.75 56.56 53.71 52.32 51.48 51.07 50.45 49.84 49.15 48.75 48.88 48.99 48.64 48.63 46.83 46.18 46.72 45.55 44.62 44.31 42.95 43.70 43.08 43.43
39.65 37.21 36.04 36.34 40.86 40.25 38.63 38.43 40.38 43.66 46.23 46.48 46.74 47.59 47.94 48.76 50.58 51.81 52.78 54.21 53.92 54.90 56.70 57.52 56.93 54.38 51.76 51.14 50.29 49.62 48.32 49.82 50.90 50.80 50.17 49.15 48.66 48.00 45.59 45.06 44.76 44.76 43.63 42.71 43.18 42.69 42.39 42.94 43.76
41.00 38.31 36.68 39.63 42.70 40.36 39.60 38.20 42.05 44.80 45.21 47.07 46.75 46.42 47.00 48.15 49.96 51.17 51.74 52.06 53.51 54.31 53.21 49.99 49.95 50.26 50.47 50.20 50.54 52.33 53.16 52.57 51.15 49.08 47.96 47.82 46.72 46.20 45.63 43.70 43.31 43.47 43.46 43.27 42.70 42.41 42.00 42.22 42.68
40.29 37.81 37.30 38.68 39.67 40.73 39.58 37.62 39.25 43.66 45.33 46.97 47.29 47.52 47.81 47.93 48.16 50.03 50.54 49.83 48.73 47.85 48.16 49.15 49.47 49.89 50.96 51.80 51.15 50.30 50.07 48.92 46.59 45.00 43.63 44.66 45.39 44.72 44.36 43.84 43.29 43.23 43.18 42.07 41.71 41.14 40.68 39.56 40.83
37.76 42.55 41.44 39.84 36.04 32.89 37.46 28.71 36.74 40.18 42.05 44.36 45.51 45.62 46.30 47.75 49.09 49.02 47.65 46.43 47.12 46.89 47.13 48.37 48.86 48.94 49.31 48.92 48.24 47.81 47.34 46.35 45.77 43.22 42.37 42.73 43.64 43.62 44.66 43.54 44.02 42.41 41.76 40.93 41.19 41.92 39.53 39.19 37.66
40.73 43.08 40.67 39.51 35.41 34.19 34.95 31.65 34.06 40.81 39.46 41.73 43.29 45.90 48.00 47.84 48.00 47.21 47.18 47.64 47.45 46.96 46.69 47.05 48.33 48.96 48.64 48.19 47.95 47.64 45.92 44.97 43.39 42.21 41.59 43.50 44.36 43.11 44.78 43.89 41.64 40.14 40.14 39.11 39.21 39.25 38.70 38.76 37.54
44.02 42.44 41.08 39.22 36.02 28.79 35.59 33.05 32.43 35.94 39.93 41.57 43.98 46.38 47.70 47.03 46.65 47.27 48.36 48.64 47.49 46.67 46.29 46.61 47.54 47.66 48.04 47.19 46.36 45.40 43.97 42.85 41.60 42.57 43.28 43.84 43.77 43.27 41.14 41.42 40.15 39.95 39.34 38.86 38.65 38.20 37.78 37.33 37.24
42.01 37.53 28.76 28.06 27.33 27.43 37.32 34.50 34.43 40.87 43.03 43.78 44.39 44.91 45.49 44.88 45.40 47.05 47.87 48.35 48.05 46.27 46.44 46.46 46.78 46.85 47.09 45.75 44.63 44.02 43.42 42.45 42.21 42.09 41.72 41.19 40.50 39.31 38.25 39.58 39.60 39.34 39.33 39.28 38.76 37.86 37.32 36.84 35.80
38.44 37.33 29.10 28.10 24.98 27.26 36.46 31.08 35.35 42.18 45.22 46.14 45.43 44.13 43.98 43.41 45.68 46.52 46.51 46.07 45.31 45.64 44.88 44.91 45.17 44.88 45.79 44.79 44.15 43.70 43.32 42.73 42.68 41.90 40.75 39.77 39.42 38.19 38.55 39.05 39.65 39.57 39.39 38.75 38.44 37.53 36.41 36.61 34.77
38.94 33.67 38.64 31.10 28.70 26.02 30.98 35.13 40.72 42.82 43.20 44.02 43.99 44.10 43.48 44.10 43.80 44.01 44.76 44.89 44.45 44.28 44.43 44.26 44.46 44.37 44.32 44.03 43.05 42.90 42.89 42.62 41.87 41.06 39.46 39.10 38.29 39.37 38.62 38.27 38.89 39.56 38.71 37.78 38.50 35.55 34.09 34.03 33.69
40.04 41.64 32.66 30.03 23.70 24.24 28.54 30.94 32.18 38.24 40.83 42.95 41.58 41.62 42.04 42.55 42.60 43.13 43.60 44.55 45.20 44.92 43.89 43.20 43.25 43.19 43.87 43.65 42.59 42.52 41.64 42.15 41.43 39.64 38.95 38.52 37.92 38.65 38.52 39.46 38.25 36.99 36.65 35.03 33.30 32.14 32.98 33.41 30.47
38.04 35.86 35.47 34.44 29.17 24.02 21.35 28.32 37.11 39.78 41.47 39.68 40.00 41.63 41.68 41.99 42.05 42.65 43.62 43.78 43.62 42.88 42.46 40.67 40.61 40.85 41.79 41.67 41.03 40.47 40.16 40.02 39.89 39.03 38.13 37.54 37.41 39.71 39.90 39.51 37.91 35.07 33.79 32.86 31.99 31.35 31.78 30.39 28.76
39.18 37.34 35.65 26.25 28.22 26.42 24.95 27.33 39.00 41.65 40.75 41.90 41.62 41.77 41.54 41.90 42.50 43.25 43.63 43.14 42.59 41.08 39.88 39.97 39.33 38.98 39.63 40.16 40.20 39.66 39.29 39.11 37.79 37.88 37.60 37.53 37.17 37.05 36.82 36.76 36.33 34.69 33.93 33.42 30.95 30.93 30.51 28.46 27.25

GFSSGP_sfc_wetblb_027.txt.gz
Wetbulb
57.42 53.57 54.16 53.31 46.52 46.51 42.57 43.54 53.52 53.40 54.64 59.17 60.75 59.10 57.41 59.24 56.11 52.79 66.88 68.58 69.65 70.32 71.44 70.86 70.24 71.58 71.60 71.70 71.54 71.23 70.34 69.89 69.66 69.10 68.48 68.74 68.21 67.27 66.61 66.95 67.14 66.47 65.14 64.82 64.18 63.84 63.99 64.04 63.98
53.64 53.48 52.91 50.46 45.19 40.93 44.12 49.07 52.51 55.48 57.76 58.65 58.50 58.55 57.97 55.35 62.85 63.68 65.29 69.14 69.87 70.63 71.17 70.43 70.34 71.36 71.69 71.37 70.85 70.59 70.20 69.61 69.20 68.28 68.45 68.00 66.81 66.20 65.92 65.72 66.50 66.16 64.81 64.37 63.82 63.67 64.02 63.94 64.03
55.44 53.21 49.51 47.45 43.72 41.11 45.28 53.78 54.46 55.73 57.45 56.59 55.78 59.44 58.44 58.64 63.56 64.37 68.14 69.19 70.24 70.32 70.80 70.88 70.15 71.07 71.36 71.07 70.48 70.44 70.13 69.66 69.05 68.59 68.29 66.98 65.95 65.64 65.41 65.54 65.97 66.41 65.41 65.18 64.46 64.39 64.08 63.81 63.93
54.01 51.88 48.16 45.11 41.25 43.67 47.72 54.64 55.76 54.09 55.71 57.17 56.74 54.08 60.88 64.61 63.97 66.41 69.06 69.48 69.55 70.00 70.81 70.07 69.61 70.45 70.91 71.06 70.83 70.59 70.05 69.16 68.77 68.71 67.85 66.24 65.33 64.82 64.82 65.56 66.11 65.54 65.32 65.23 64.94 64.72 64.60 64.84 64.80
51.23 48.31 44.29 43.91 44.68 46.82 48.10 56.20 56.33 54.39 54.23 54.61 55.29 53.90 58.75 64.96 66.77 68.66 68.25 68.89 68.82 69.73 70.63 70.98 68.39 69.80 70.59 70.82 70.47 70.16 69.33 68.76 68.64 68.76 67.82 66.79 65.14 64.86 64.72 65.59 65.62 65.27 64.70 64.67 64.56 64.52 64.73 64.89 64.97
49.47 46.98 43.81 44.86 46.20 50.03 53.67 56.71 56.34 54.76 55.03 55.79 55.70 56.27 59.23 66.33 66.27 67.77 68.63 68.37 68.95 68.71 69.97 70.39 69.67 69.67 69.75 70.10 69.78 68.83 68.38 68.21 68.36 68.18 67.66 66.58 65.91 65.78 64.79 64.93 65.23 64.80 64.81 64.78 64.75 64.71 64.53 64.57 64.31
47.13 45.06 44.33 47.11 46.83 48.10 51.48 57.17 55.26 54.91 54.76 55.29 57.78 56.32 60.96 63.79 66.00 67.79 68.17 68.73 68.44 68.79 68.53 69.56 70.12 69.69 68.50 67.99 67.69 67.06 67.39 67.48 67.76 67.53 66.99 66.42 65.68 65.47 65.49 65.24 65.00 64.82 65.36 65.04 64.85 64.48 64.41 63.96 63.27
48.38 46.39 42.34 47.67 46.63 46.95 51.91 55.74 56.13 54.90 53.40 58.51 60.14 56.12 57.47 62.38 66.07 66.70 67.36 67.10 67.37 67.33 67.54 67.90 69.50 69.31 69.31 68.41 66.33 66.19 66.32 66.41 66.47 66.47 65.87 64.91 64.63 64.98 65.17 63.55 64.81 65.04 64.92 64.71 64.34 63.83 62.58 61.29 61.33
48.15 44.27 41.25 46.35 47.65 49.20 52.96 51.38 55.19 55.93 54.72 54.86 54.22 60.43 62.75 64.52 64.82 64.11 63.44 63.81 64.44 65.51 66.55 67.47 68.07 67.89 67.04 66.88 66.57 65.87 66.21 65.83 65.59 65.90 64.80 64.03 65.29 65.09 64.93 63.80 64.46 62.98 62.57 63.06 62.56 61.17 60.10 59.73 60.14
47.18 43.89 43.05 49.45 52.96 50.92 52.32 52.50 53.52 53.82 53.67 52.17 56.58 61.05 63.10 63.30 63.27 62.38 62.28 62.10 62.43 64.38 65.29 65.68 65.83 65.29 64.93 64.74 66.39 66.26 65.95 65.85 65.98 65.74 65.75 65.63 65.44 65.23 64.91 63.02 61.05 60.71 60.51 60.40 59.82 59.08 59.36 59.51 59.28
45.64 44.36 44.83 50.02 53.81 54.15 52.93 51.21 54.63 53.42 52.46 53.88 56.85 59.57 61.37 61.42 61.87 62.03 61.88 63.30 63.53 64.07 63.71 63.46 64.13 64.26 63.95 64.20 65.14 65.01 65.44 65.59 65.70 65.38 65.68 65.55 65.02 65.56 64.61 61.46 61.01 61.13 59.12 59.08 58.98 58.43 57.22 57.06 56.81
44.55 45.85 45.82 50.37 54.32 51.92 49.95 51.32 52.75 55.16 54.51 56.69 60.60 61.94 61.71 61.22 61.24 61.94 61.96 61.52 60.06 61.01 61.63 62.47 62.88 62.94 63.24 63.89 63.84 64.13 64.70 65.08 65.37 65.85 65.71 65.74 64.41 61.67 60.50 59.94 58.92 58.76 58.21 57.54 56.94 56.19 56.20 55.58 54.74
45.05 45.76 45.12 45.03 50.63 51.40 49.06 50.42 53.94 53.13 54.12 57.92 60.26 60.92 60.82 60.79 60.97 60.66 60.31 59.52 58.84 59.12 60.60 61.67 62.08 62.02 62.04 62.91 63.63 64.17 64.42 64.79 65.27 65.37 63.39 62.56 61.33 60.10 59.08 57.44 56.82 56.53 56.84 56.44 55.56 55.04 54.27 53.85 53.74
46.87 44.75 44.50 43.93 44.99 46.23 47.46 46.22 52.08 50.27 54.16 57.48 58.96 59.11 59.73 59.50 58.33 57.27 56.64 56.82 57.93 59.46 60.44 61.87 61.96 62.22 62.11 61.75 62.50 63.03 63.67 63.43 63.14 62.08 62.18 61.24 60.59 58.92 56.52 56.01 55.45 55.61 55.56 55.38 55.06 54.34 53.60 52.78 52.47
45.08 43.57 44.41 44.58 45.25 44.99 46.95 43.74 43.57 50.66 53.69 55.08 56.30 55.78 56.39 56.49 56.62 56.24 57.35 57.65 59.01 60.65 61.48 61.35 61.55 61.95 61.45 61.05 60.65 58.63 59.38 59.37 59.29 59.79 59.44 59.44 57.33 56.16 55.98 55.57 55.11 54.80 54.65 54.39 53.78 52.99 52.57 51.54 51.03
43.54 43.58 40.56 44.32 45.55 44.49 45.31 40.52 44.66 50.69 52.25 52.14 53.51 53.47 54.51 55.11 56.20 57.12 57.68 58.98 60.68 61.17 61.69 62.39 61.72 61.06 60.25 60.33 57.25 56.21 57.06 58.10 57.18 56.78 55.32 55.85 55.59 55.99 54.75 52.63 53.24 53.09 51.50 50.89 51.55 50.87 50.53 50.54 50.81
42.22 39.27 40.01 42.39 45.24 44.83 43.87 41.10 46.24 47.98 51.82 50.46 51.79 52.72 53.65 54.56 56.37 58.27 58.75 58.27 61.17 61.76 61.50 60.84 62.14 61.79 60.19 56.98 54.99 54.12 54.99 54.38 53.42 53.90 54.75 55.21 53.55 53.45 52.07 50.50 51.16 51.75 50.88 51.33 50.71 50.37 50.14 49.05 48.99
39.11 39.23 39.98 41.01 43.46 44.87 43.93 43.04 46.13 47.18 51.33 50.36 50.92 51.83 52.29 52.51 53.26 55.64 57.74 59.97 61.01 61.45 61.25 61.51 62.14 59.69 55.98 55.38 54.72 54.13 53.73 53.32 53.36 53.47 53.55 52.71 52.01 52.22 51.97 51.12 51.23 51.66 50.63 49.80 49.35 48.55 48.57 48.64 47.77
41.59 40.59 40.13 41.37 42.52 44.38 42.42 43.37 44.86 47.70 49.57 49.55 49.99 50.75 51.34 52.22 54.32 56.72 57.42 59.94 60.84 61.19 61.14 61.38 59.21 57.32 54.97 54.98 53.53 53.31 52.95 53.10 52.92 51.47 52.50 51.85 51.24 50.80 51.22 50.85 50.78 50.53 49.06 48.28 48.08 47.34 46.52 46.06 47.50
42.08 41.17 40.25 41.78 43.29 44.49 42.92 42.65 45.85 47.01 46.87 48.60 49.71 50.47 51.69 53.49 54.23 55.38 57.87 59.82 60.36 60.41 61.08 60.71 59.99 56.34 55.07 55.77 56.17 57.15 56.07 54.66 51.77 50.84 50.40 50.51 50.71 50.75 50.06 50.21 49.48 49.03 47.98 47.53 47.07 46.71 45.01 45.48 46.69
41.80 41.31 40.78 40.92 43.29 44.08 43.40 41.65 43.19 46.08 47.86 48.75 49.43 51.08 53.29 54.00 53.97 55.78 57.05 58.83 59.38 59.03 59.33 59.90 58.87 56.07 56.25 56.03 55.94 54.68 53.20 51.17 49.96 49.63 49.39 49.70 49.93 49.41 49.68 49.38 49.28 48.70 48.30 46.26 46.33 46.04 44.82 42.44 44.67
40.57 44.15 42.12 41.13 41.26 38.82 41.83 37.48 40.56 44.32 45.74 48.11 49.70 51.86 52.59 53.56 54.75 55.23 55.03 52.74 52.48 51.90 53.60 55.14 56.07 55.01 54.81 54.42 54.14 53.63 53.67 52.83 51.32 50.27 49.91 49.79 48.59 48.67 48.88 48.69 48.36 48.00 47.80 45.96 45.67 45.80 45.12 43.66 40.71
42.41 44.38 42.89 41.29 40.11 39.80 39.68 39.52 39.33 44.36 43.96 46.76 48.76 49.11 50.55 52.73 52.45 51.68 50.80 51.02 50.68 51.55 52.49 53.35 53.27 53.05 53.10 53.26 53.57 52.65 51.12 49.92 49.36 49.38 48.57 49.30 49.54 48.83 48.47 48.09 47.40 47.34 47.02 46.22 45.20 44.99 43.81 43.61 41.55
45.24 44.19 42.95 41.57 40.41 34.90 37.71 38.10 37.83 41.66 44.97 46.84 48.27 48.62 49.73 49.88 49.66 49.95 50.73 50.83 51.37 52.50 52.74 52.62 52.67 51.93 52.24 52.51 52.18 51.54 50.38 49.58 49.45 49.65 49.84 50.04 49.74 49.30 48.33 46.55 46.73 46.75 45.72 44.82 44.38 44.35 43.43 42.59 42.04
44.74 42.11 35.79 34.69 34.98 33.24 38.06 36.89 40.49 43.24 45.55 49.02 48.11 48.45 49.64 50.15 49.97 50.14 50.26 50.65 50.99 50.84 51.57 52.06 52.07 50.71 51.22 51.54 51.53 51.42 50.93 50.23 49.47 49.19 48.81 48.15 48.22 47.68 47.00 46.04 45.92 45.63 45.34 45.20 44.79 44.24 43.72 42.82 40.91
41.17 41.90 36.68 29.15 30.94 34.13 37.90 35.56 41.22 44.51 46.66 49.89 50.04 49.69 49.50 49.50 50.37 50.20 50.54 51.06 50.85 50.18 50.64 50.77 50.73 49.88 50.47 50.69 50.24 49.72 48.94 48.97 48.63 48.28 48.17 47.58 47.04 46.74 46.53 45.38 45.52 45.48 45.35 44.78 44.51 43.91 43.09 42.89 40.68
40.86 38.10 41.32 34.61 31.29 32.11 35.97 39.14 43.40 43.70 44.32 46.66 47.61 48.03 48.53 49.48 50.02 50.10 50.08 49.74 49.26 49.11 49.24 49.74 49.62 49.20 49.36 49.32 48.90 48.68 48.18 47.75 47.36 47.07 46.75 46.01 45.89 45.33 45.54 45.12 44.56 44.83 44.70 43.96 43.55 42.27 41.16 40.66 40.09
43.41 42.82 37.12 36.18 28.69 27.16 32.46 34.18 37.87 40.64 42.31 45.39 46.04 47.13 48.32 48.75 48.46 48.55 48.18 48.00 48.15 48.57 48.02 48.11 48.00 47.49 48.37 48.77 48.08 46.95 46.31 45.63 45.41 45.61 45.29 45.48 45.64 45.62 45.34 45.43 44.73 43.44 42.49 41.58 40.95 39.73 39.80 38.70 39.13
41.11 38.92 37.19 37.32 33.88 29.55 27.54 33.76 42.00 43.57 44.68 44.84 46.93 47.61 47.57 47.05 47.36 47.33 47.24 47.58 46.95 46.47 46.29 46.28 45.06 45.80 46.25 46.37 45.13 44.43 44.45 44.58 44.99 44.86 44.74 44.60 44.73 44.53 43.99 43.43 42.87 41.77 39.29 40.53 41.22 39.28 38.29 37.06 37.36
42.25 39.83 38.95 33.97 30.92 31.00 31.16 34.35 41.45 43.18 45.69 46.74 46.90 45.65 46.02 46.59 46.41 46.83 46.95 45.93 45.29 44.89 45.00 43.07 43.85 45.08 44.51 43.13 43.15 43.21 43.90 44.31 43.43 42.97 42.94 43.40 42.40 42.54 41.92 41.85 41.09 41.35 41.61 40.83 39.88 37.53 37.38 36.07 35.35